Observation data for Odell on 12/10/2018      Previous  Date       Current Mesonet Observations  Soil Data  Daily Summary Page  Observations in Plain Language
KOD1 100600Z 26005KT M00/M03 A3036 RMK A01 T10031031  RH  082%=      5-min Rain = 0
KOD1 100601Z 26004KT M00/M03 A3036 RMK A01 T10031030  RH  082%=      5-min Rain = 0
KOD1 100602Z 26004KT M00/M03 A3036 RMK A01 T10041029  RH  083%=      5-min Rain = 0
KOD1 100603Z 25004KT M00/M03 A3036 RMK A01 T10031028  RH  084%=      5-min Rain = 0
KOD1 100604Z 26004KT M00/M03 A3036 RMK A01 T10031026  RH  084%=      5-min Rain = 0
KOD1 100605Z 26004KT M00/M03 A3036 RMK A01 T10031026  RH  084%=      5-min Rain = 0
KOD1 100606Z 26005KT M00/M03 A3036 RMK A01 T10031026  RH  084%=      5-min Rain = 0
KOD1 100607Z 26005KT M00/M03 A3036 RMK A01 T10041027  RH  084%=      5-min Rain = 0
KOD1 100608Z 26005KT M00/M03 A3036 RMK A01 T10041027  RH  084%=      5-min Rain = 0
KOD1 100609Z 26005KT M01/M03 A3036 RMK A01 T10051028  RH  084%=      5-min Rain = 0
KOD1 100610Z 26005KT M01/M03 A3036 RMK A01 T10061028  RH  085%=      5-min Rain = 0
KOD1 100611Z 26005KT M01/M03 A3036 RMK A01 T10061028  RH  085%=      5-min Rain = 0
KOD1 100612Z 26005KT M01/M03 A3036 RMK A01 T10061028  RH  085%=      5-min Rain = 0
KOD1 100613Z 26005KT M01/M03 A3036 RMK A01 T10071028  RH  086%=      5-min Rain = 0
KOD1 100614Z 26005KT M01/M03 A3036 RMK A01 T10071028  RH  086%=      5-min Rain = 0
KOD1 100615Z 26005KT M01/M03 A3036 RMK A01 T10081028  RH  086%=      5-min Rain = 0
KOD1 100616Z 26005KT M01/M03 A3036 RMK A01 T10081028  RH  086%=      5-min Rain = 0
KOD1 100617Z 25005KT M01/M03 A3036 RMK A01 T10081028  RH  087%=      5-min Rain = 0
KOD1 100618Z 25005KT M01/M03 A3036 RMK A01 T10081027  RH  087%=      5-min Rain = 0
KOD1 100619Z 24005KT M01/M03 A3036 RMK A01 T10081026  RH  087%=      5-min Rain = 0
KOD1 100620Z 25005KT M01/M03 A3036 RMK A01 T10071025  RH  088%=      5-min Rain = 0
KOD1 100621Z 24005KT M01/M03 A3036 RMK A01 T10071025  RH  088%=      5-min Rain = 0
KOD1 100622Z 25005KT M01/M03 A3036 RMK A01 T10071025  RH  088%=      5-min Rain = 0
KOD1 100623Z 25005KT M01/M03 A3036 RMK A01 T10071025  RH  087%=      5-min Rain = 0
KOD1 100624Z 25005KT M01/M03 A3036 RMK A01 T10071026  RH  087%=      5-min Rain = 0
KOD1 100625Z 25005KT M01/M03 A3036 RMK A01 T10081026  RH  087%=      5-min Rain = 0
KOD1 100626Z 25005KT M01/M03 A3036 RMK A01 T10081026  RH  088%=      5-min Rain = 0
KOD1 100627Z 25004KT M01/M03 A3036 RMK A01 T10081026  RH  088%=      5-min Rain = 0
KOD1 100628Z 25004KT M01/M03 A3036 RMK A01 T10081026  RH  088%=      5-min Rain = 0
KOD1 100629Z 25004KT M01/M03 A3036 RMK A01 T10091026  RH  088%=      5-min Rain = 0
KOD1 100630Z 25004KT M01/M03 A3036 RMK A01 T10091026  RH  088%=      5-min Rain = 0
KOD1 100631Z 24004KT M01/M03 A3036 RMK A01 T10091026  RH  088%=      5-min Rain = 0
KOD1 100632Z 25004KT M01/M03 A3036 RMK A01 T10091026  RH  088%=      5-min Rain = 0
KOD1 100633Z 25005KT M01/M03 A3036 RMK A01 T10091026  RH  088%=      5-min Rain = 0
KOD1 100634Z 25005KT M01/M03 A3036 RMK A01 T10091027  RH  088%=      5-min Rain = 0
KOD1 100635Z 26005KT M01/M03 A3036 RMK A01 T10101027  RH  088%=      5-min Rain = 0
KOD1 100636Z 26006KT M01/M03 A3036 RMK A01 T10101028  RH  088%=      5-min Rain = 0
KOD1 100637Z 26006KT M01/M03 A3036 RMK A01 T10111028  RH  088%=      5-min Rain = 0
KOD1 100638Z 26006KT M01/M03 A3035 RMK A01 T10111029  RH  088%=      5-min Rain = 0
KOD1 100639Z 26006KT M01/M03 A3035 RMK A01 T10121029  RH  088%=      5-min Rain = 0
KOD1 100640Z 26006KT M01/M03 A3035 RMK A01 T10121030  RH  088%=      5-min Rain = 0
KOD1 100641Z 26006KT M01/M03 A3035 RMK A01 T10131030  RH  088%=      5-min Rain = 0
KOD1 100642Z 26006KT M01/M03 A3035 RMK A01 T10131031  RH  088%=      5-min Rain = 0
KOD1 100643Z 26005KT M01/M03 A3035 RMK A01 T10131031  RH  088%=      5-min Rain = 0
KOD1 100644Z 26005KT M01/M03 A3035 RMK A01 T10141031  RH  088%=      5-min Rain = 0
KOD1 100645Z 26006KT M01/M03 A3035 RMK A01 T10141031  RH  088%=      5-min Rain = 0
KOD1 100646Z 26006KT M01/M03 A3035 RMK A01 T10141031  RH  088%=      5-min Rain = 0
KOD1 100647Z 26005KT M01/M03 A3035 RMK A01 T10141031  RH  088%=      5-min Rain = 0
KOD1 100648Z 26005KT M01/M03 A3035 RMK A01 T10141031  RH  088%=      5-min Rain = 0
KOD1 100649Z 26005KT M02/M03 A3035 RMK A01 T10151031  RH  089%=      5-min Rain = 0
KOD1 100650Z 26005KT M02/M03 A3035 RMK A01 T10151031  RH  089%=      5-min Rain = 0
KOD1 100651Z 26005KT M02/M03 A3035 RMK A01 T10151031  RH  089%=      5-min Rain = 0
KOD1 100652Z 26005KT M02/M03 A3035 RMK A01 T10151031  RH  089%=      5-min Rain = 0
KOD1 100653Z 26005KT M02/M03 A3035 RMK A01 T10151031  RH  089%=      5-min Rain = 0
KOD1 100654Z 26005KT M02/M03 A3035 RMK A01 T10151031  RH  089%=      5-min Rain = 0
KOD1 100655Z 26005KT M02/M03 A3035 RMK A01 T10151031  RH  089%=      5-min Rain = 0
KOD1 100656Z 26005KT M02/M03 A3035 RMK A01 T10161032  RH  089%=      5-min Rain = 0
KOD1 100657Z 25004KT M02/M03 A3035 RMK A01 T10161032  RH  089%=      5-min Rain = 0
KOD1 100658Z 25005KT M02/M03 A3035 RMK A01 T10161032  RH  089%=      5-min Rain = 0
KOD1 100659Z 25005KT M02/M03 A3035 RMK A01 T10171032  RH  089%=      5-min Rain = 0
KOD1 100700Z 25005KT M02/M03 A3035 RMK A01 T10171032  RH  089%=      5-min Rain = 0
KOD1 100701Z 24005KT M02/M03 A3035 RMK A01 T10171032  RH  090%=      5-min Rain = 0
KOD1 100702Z 25005KT M02/M03 A3035 RMK A01 T10181033  RH  090%=      5-min Rain = 0
KOD1 100703Z 24005KT M02/M03 A3035 RMK A01 T10181033  RH  090%=      5-min Rain = 0
KOD1 100704Z 24005KT M02/M03 A3035 RMK A01 T10181033  RH  090%=      5-min Rain = 0
KOD1 100705Z 24005KT M02/M03 A3035 RMK A01 T10191033  RH  090%=      5-min Rain = 0
KOD1 100706Z 24005KT M02/M03 A3035 RMK A01 T10191033  RH  090%=      5-min Rain = 0
KOD1 100707Z 24005KT M02/M03 A3035 RMK A01 T10191033  RH  090%=      5-min Rain = 0
KOD1 100708Z 24005KT M02/M03 A3034 RMK A01 T10201034  RH  090%=      5-min Rain = 0
KOD1 100709Z 24005KT M02/M03 A3034 RMK A01 T10201033  RH  091%=      5-min Rain = 0
KOD1 100710Z 24005KT M02/M03 A3034 RMK A01 T10201033  RH  091%=      5-min Rain = 0
KOD1 100711Z 24005KT M02/M03 A3034 RMK A01 T10201032  RH  091%=      5-min Rain = 0
KOD1 100712Z 24005KT M02/M03 A3034 RMK A01 T10201032  RH  091%=      5-min Rain = 0
KOD1 100713Z 24005KT M02/M03 A3034 RMK A01 T10201032  RH  091%=      5-min Rain = 0
KOD1 100714Z 24005KT M02/M03 A3034 RMK A01 T10201032  RH  091%=      5-min Rain = 0
KOD1 100715Z 24005KT M02/M03 A3034 RMK A01 T10191031  RH  092%=      5-min Rain = 0
KOD1 100716Z 24004KT M02/M03 A3034 RMK A01 T10191031  RH  092%=      5-min Rain = 0
KOD1 100717Z 24004KT M02/M03 A3034 RMK A01 T10191031  RH  092%=      5-min Rain = 0
KOD1 100718Z 24004KT M02/M03 A3034 RMK A01 T10191031  RH  092%=      5-min Rain = 0
KOD1 100719Z 24004KT M02/M03 A3034 RMK A01 T10191031  RH  092%=      5-min Rain = 0
KOD1 100720Z 24004KT M02/M03 A3034 RMK A01 T10191031  RH  092%=      5-min Rain = 0
KOD1 100721Z 24004KT M02/M03 A3034 RMK A01 T10191031  RH  092%=      5-min Rain = 0
KOD1 100722Z 24004KT M02/M03 A3034 RMK A01 T10191031  RH  091%=      5-min Rain = 0
KOD1 100723Z 24004KT M02/M03 A3034 RMK A01 T10191031  RH  091%=      5-min Rain = 0
KOD1 100724Z 23004KT M02/M03 A3034 RMK A01 T10201032  RH  092%=      5-min Rain = 0
KOD1 100725Z 23004KT M02/M03 A3034 RMK A01 T10201032  RH  091%=      5-min Rain = 0
KOD1 100726Z 23004KT M02/M03 A3034 RMK A01 T10201032  RH  091%=      5-min Rain = 0
KOD1 100727Z 24004KT M02/M03 A3034 RMK A01 T10201033  RH  091%=      5-min Rain = 0
KOD1 100728Z 24004KT M02/M03 A3034 RMK A01 T10211034  RH  091%=      5-min Rain = 0
KOD1 100729Z 24004KT M02/M03 A3034 RMK A01 T10221034  RH  091%=      5-min Rain = 0
KOD1 100730Z 24004KT M02/M04 A3034 RMK A01 T10221035  RH  091%=      5-min Rain = 0
KOD1 100731Z 24004KT M02/M04 A3034 RMK A01 T10231035  RH  091%=      5-min Rain = 0
KOD1 100732Z 24003KT M02/M04 A3034 RMK A01 T10231035  RH  091%=      5-min Rain = 0
KOD1 100733Z 25004KT M02/M04 A3034 RMK A01 T10241035  RH  092%=      5-min Rain = 0
KOD1 100734Z 25004KT M02/M04 A3034 RMK A01 T10241035  RH  092%=      5-min Rain = 0
KOD1 100735Z 25004KT M02/M04 A3034 RMK A01 T10241036  RH  092%=      5-min Rain = 0
KOD1 100736Z 25004KT M02/M04 A3034 RMK A01 T10241036  RH  092%=      5-min Rain = 0
KOD1 100737Z 25004KT M03/M04 A3034 RMK A01 T10251036  RH  092%=      5-min Rain = 0
KOD1 100738Z 25005KT M03/M04 A3034 RMK A01 T10251036  RH  092%=      5-min Rain = 0
KOD1 100739Z 25005KT M03/M04 A3034 RMK A01 T10251037  RH  092%=      5-min Rain = 0
KOD1 100740Z 25005KT M03/M04 A3034 RMK A01 T10261038  RH  092%=      5-min Rain = 0
KOD1 100741Z 25005KT M03/M04 A3034 RMK A01 T10261038  RH  092%=      5-min Rain = 0
KOD1 100742Z 25005KT M03/M04 A3034 RMK A01 T10271038  RH  092%=      5-min Rain = 0
KOD1 100743Z 25005KT M03/M04 A3034 RMK A01 T10271038  RH  092%=      5-min Rain = 0
KOD1 100744Z 25005KT M03/M04 A3034 RMK A01 T10281038  RH  093%=      5-min Rain = 0
KOD1 100745Z 25005KT M03/M04 A3034 RMK A01 T10271038  RH  093%=      5-min Rain = 0
KOD1 100746Z 25005KT M03/M04 A3034 RMK A01 T10271037  RH  093%=      5-min Rain = 0
KOD1 100747Z 24005KT M03/M04 A3034 RMK A01 T10271037  RH  093%=      5-min Rain = 0
KOD1 100748Z 25005KT M03/M04 A3034 RMK A01 T10281037  RH  093%=      5-min Rain = 0
KOD1 100749Z 25005KT M03/M04 A3034 RMK A01 T10281038  RH  093%=      5-min Rain = 0
KOD1 100750Z 25006KT M03/M04 A3034 RMK A01 T10281038  RH  093%=      5-min Rain = 0
KOD1 100751Z 25006KT M03/M04 A3034 RMK A01 T10281038  RH  093%=      5-min Rain = 0
KOD1 100752Z 25006KT M03/M04 A3034 RMK A01 T10291039  RH  093%=      5-min Rain = 0
KOD1 100753Z 25006KT M03/M04 A3034 RMK A01 T10291038  RH  093%=      5-min Rain = 0
KOD1 100754Z 25006KT M03/M04 A3034 RMK A01 T10291038  RH  093%=      5-min Rain = 0
KOD1 100755Z 25006KT M03/M04 A3034 RMK A01 T10291038  RH  093%=      5-min Rain = 0
KOD1 100756Z 25006KT M03/M04 A3034 RMK A01 T10291038  RH  093%=      5-min Rain = 0
KOD1 100757Z 25006KT M03/M04 A3034 RMK A01 T10291038  RH  093%=      5-min Rain = 0
KOD1 100758Z 25006KT M03/M04 A3034 RMK A01 T10291038  RH  094%=      5-min Rain = 0
KOD1 100759Z 25006KT M03/M04 A3034 RMK A01 T10291037  RH  094%=      5-min Rain = 0
KOD1 100800Z 25006KT M03/M04 A3034 RMK A01 T10281037  RH  094%=      5-min Rain = 0
KOD1 100801Z 25006KT M03/M04 A3034 RMK A01 T10281036  RH  094%=      5-min Rain = 0
KOD1 100802Z 25005KT M03/M04 A3034 RMK A01 T10271036  RH  094%=      5-min Rain = 0
KOD1 100803Z 25005KT M03/M04 A3034 RMK A01 T10271035  RH  094%=      5-min Rain = 0
KOD1 100804Z 25005KT M03/M04 A3034 RMK A01 T10271035  RH  094%=      5-min Rain = 0
KOD1 100805Z 25005KT M03/M04 A3034 RMK A01 T10271036  RH  094%=      5-min Rain = 0
KOD1 100806Z 25005KT M03/M04 A3034 RMK A01 T10271036  RH  094%=      5-min Rain = 0
KOD1 100807Z 25005KT M03/M04 A3034 RMK A01 T10271036  RH  094%=      5-min Rain = 0
KOD1 100808Z 24005KT M03/M04 A3034 RMK A01 T10281037  RH  094%=      5-min Rain = 0
KOD1 100809Z 24005KT M03/M04 A3034 RMK A01 T10281037  RH  094%=      5-min Rain = 0
KOD1 100810Z 24005KT M03/M04 A3034 RMK A01 T10281037  RH  094%=      5-min Rain = 0
KOD1 100811Z 24005KT M03/M04 A3034 RMK A01 T10281037  RH  094%=      5-min Rain = 0
KOD1 100812Z 24005KT M03/M04 A3034 RMK A01 T10281036  RH  094%=      5-min Rain = 0
KOD1 100813Z 24005KT M03/M04 A3034 RMK A01 T10281035  RH  094%=      5-min Rain = 0
KOD1 100814Z 24005KT M03/M03 A3034 RMK A01 T10271034  RH  095%=      5-min Rain = 0
KOD1 100815Z 24005KT M03/M03 A3033 RMK A01 T10261033  RH  095%=      5-min Rain = 0
KOD1 100816Z 24004KT M03/M03 A3033 RMK A01 T10261033  RH  095%=      5-min Rain = 0
KOD1 100817Z 23004KT M03/M03 A3033 RMK A01 T10251033  RH  095%=      5-min Rain = 0
KOD1 100818Z 23004KT M03/M03 A3033 RMK A01 T10251032  RH  095%=      5-min Rain = 0
KOD1 100819Z 23004KT M02/M03 A3033 RMK A01 T10241031  RH  095%=      5-min Rain = 0
KOD1 100820Z 23004KT M02/M03 A3033 RMK A01 T10241031  RH  095%=      5-min Rain = 0
KOD1 100821Z 23004KT M02/M03 A3033 RMK A01 T10241031  RH  095%=      5-min Rain = 0
KOD1 100822Z 24004KT M02/M03 A3033 RMK A01 T10231030  RH  095%=      5-min Rain = 0
KOD1 100823Z 24004KT M02/M03 A3033 RMK A01 T10231030  RH  095%=      5-min Rain = 0
KOD1 100824Z 24004KT M02/M03 A3033 RMK A01 T10221029  RH  095%=      5-min Rain = 0
KOD1 100825Z 24004KT M02/M03 A3033 RMK A01 T10221029  RH  095%=      5-min Rain = 0
KOD1 100826Z 24004KT M02/M03 A3033 RMK A01 T10221029  RH  095%=      5-min Rain = 0
KOD1 100827Z 25004KT M02/M03 A3033 RMK A01 T10221029  RH  095%=      5-min Rain = 0
KOD1 100828Z 25004KT M02/M03 A3033 RMK A01 T10211028  RH  095%=      5-min Rain = 0
KOD1 100829Z 25004KT M02/M03 A3033 RMK A01 T10211028  RH  095%=      5-min Rain = 0
KOD1 100830Z 25004KT M02/M03 A3033 RMK A01 T10211028  RH  095%=      5-min Rain = 0
KOD1 100831Z 24003KT M02/M03 A3033 RMK A01 T10201028  RH  095%=      5-min Rain = 0
KOD1 100832Z 24003KT M02/M03 A3033 RMK A01 T10201028  RH  095%=      5-min Rain = 0
KOD1 100833Z 24003KT M02/M03 A3033 RMK A01 T10201028  RH  095%=      5-min Rain = 0
KOD1 100834Z 24003KT M02/M03 A3033 RMK A01 T10201028  RH  095%=      5-min Rain = 0
KOD1 100835Z 24004KT M02/M03 A3033 RMK A01 T10201028  RH  094%=      5-min Rain = 0
KOD1 100836Z 24004KT M02/M03 A3033 RMK A01 T10201027  RH  095%=      5-min Rain = 0
KOD1 100837Z 24004KT M02/M03 A3033 RMK A01 T10201028  RH  094%=      5-min Rain = 0
KOD1 100838Z 24004KT M02/M03 A3033 RMK A01 T10201028  RH  094%=      5-min Rain = 0
KOD1 100839Z 24004KT M02/M03 A3033 RMK A01 T10201028  RH  094%=      5-min Rain = 0
KOD1 100840Z 24004KT M02/M03 A3033 RMK A01 T10201028  RH  094%=      5-min Rain = 0
KOD1 100841Z 25004KT M02/M03 A3033 RMK A01 T10201028  RH  094%=      5-min Rain = 0
KOD1 100842Z 25004KT M02/M03 A3033 RMK A01 T10201028  RH  094%=      5-min Rain = 0
KOD1 100843Z 25004KT M02/M03 A3033 RMK A01 T10201029  RH  094%=      5-min Rain = 0
KOD1 100844Z 25004KT M02/M03 A3033 RMK A01 T10201029  RH  094%=      5-min Rain = 0
KOD1 100845Z 25004KT M02/M03 A3033 RMK A01 T10201028  RH  094%=      5-min Rain = 0
KOD1 100846Z 25004KT M02/M03 A3033 RMK A01 T10201027  RH  095%=      5-min Rain = 0
KOD1 100847Z 26004KT M02/M03 A3033 RMK A01 T10191027  RH  094%=      5-min Rain = 0
KOD1 100848Z 26004KT M02/M03 A3033 RMK A01 T10191027  RH  094%=      5-min Rain = 0
KOD1 100849Z 25004KT M02/M03 A3033 RMK A01 T10191027  RH  094%=      5-min Rain = 0
KOD1 100850Z 25004KT M02/M03 A3033 RMK A01 T10191027  RH  094%=      5-min Rain = 0
KOD1 100851Z 25005KT M02/M03 A3033 RMK A01 T10191027  RH  094%=      5-min Rain = 0
KOD1 100852Z 25005KT M02/M03 A3033 RMK A01 T10191028  RH  094%=      5-min Rain = 0
KOD1 100853Z 25006KT M02/M03 A3033 RMK A01 T10201028  RH  094%=      5-min Rain = 0
KOD1 100854Z 25006KT M02/M03 A3033 RMK A01 T10201030  RH  093%=      5-min Rain = 0
KOD1 100855Z 25006KT M02/M03 A3033 RMK A01 T10221032  RH  093%=      5-min Rain = 0
KOD1 100856Z 25006KT M02/M03 A3033 RMK A01 T10231034  RH  092%=      5-min Rain = 0
KOD1 100857Z 25006KT M03/M04 A3033 RMK A01 T10251036  RH  092%=      5-min Rain = 0
KOD1 100858Z 25006KT M03/M04 A3033 RMK A01 T10261037  RH  093%=      5-min Rain = 0
KOD1 100859Z 26006KT M03/M04 A3033 RMK A01 T10271037  RH  093%=      5-min Rain = 0
KOD1 100900Z 26006KT M03/M04 A3033 RMK A01 T10281038  RH  093%=      5-min Rain = 0
KOD1 100901Z 26006KT M03/M04 A3033 RMK A01 T10291038  RH  093%=      5-min Rain = 0
KOD1 100902Z 26006KT M03/M04 A3032 RMK A01 T10291037  RH  094%=      5-min Rain = 0
KOD1 100903Z 26006KT M03/M04 A3032 RMK A01 T10291037  RH  094%=      5-min Rain = 0
KOD1 100904Z 26006KT M03/M04 A3032 RMK A01 T10291038  RH  094%=      5-min Rain = 0
KOD1 100905Z 26005KT M03/M04 A3032 RMK A01 T10291038  RH  094%=      5-min Rain = 0
KOD1 100906Z 25005KT M03/M04 A3032 RMK A01 T10291038  RH  094%=      5-min Rain = 0
KOD1 100907Z 25005KT M03/M04 A3032 RMK A01 T10301038  RH  094%=      5-min Rain = 0
KOD1 100908Z 25005KT M03/M04 A3032 RMK A01 T10301038  RH  094%=      5-min Rain = 0
KOD1 100909Z 25005KT M03/M04 A3032 RMK A01 T10301038  RH  094%=      5-min Rain = 0
KOD1 100910Z 25005KT M03/M04 A3032 RMK A01 T10301038  RH  094%=      5-min Rain = 0
KOD1 100911Z 25005KT M03/M04 A3032 RMK A01 T10311039  RH  094%=      5-min Rain = 0
KOD1 100912Z 24005KT M03/M04 A3032 RMK A01 T10311039  RH  094%=      5-min Rain = 0
KOD1 100913Z 24005KT M03/M04 A3032 RMK A01 T10311039  RH  095%=      5-min Rain = 0
KOD1 100914Z 24005KT M03/M04 A3032 RMK A01 T10311039  RH  094%=      5-min Rain = 0
KOD1 100915Z 24005KT M03/M04 A3032 RMK A01 T10311039  RH  094%=      5-min Rain = 0
KOD1 100916Z 24005KT M03/M04 A3032 RMK A01 T10321040  RH  094%=      5-min Rain = 0
KOD1 100917Z 24005KT M03/M04 A3032 RMK A01 T10321039  RH  095%=      5-min Rain = 0
KOD1 100918Z 24005KT M03/M04 A3032 RMK A01 T10321039  RH  095%=      5-min Rain = 0
KOD1 100919Z 24005KT M03/M04 A3032 RMK A01 T10321039  RH  095%=      5-min Rain = 0
KOD1 100920Z 24005KT M03/M04 A3033 RMK A01 T10321039  RH  095%=      5-min Rain = 0
KOD1 100921Z 24005KT M03/M04 A3033 RMK A01 T10311038  RH  095%=      5-min Rain = 0
KOD1 100922Z 24005KT M03/M04 A3033 RMK A01 T10311037  RH  095%=      5-min Rain = 0
KOD1 100923Z 24005KT M03/M04 A3033 RMK A01 T10301036  RH  095%=      5-min Rain = 0
KOD1 100924Z 24006KT M03/M04 A3033 RMK A01 T10291036  RH  095%=      5-min Rain = 0
KOD1 100925Z 24006KT M03/M04 A3033 RMK A01 T10291036  RH  095%=      5-min Rain = 0
KOD1 100926Z 24006KT M03/M04 A3033 RMK A01 T10291036  RH  095%=      5-min Rain = 0
KOD1 100927Z 24006KT M03/M04 A3033 RMK A01 T10291036  RH  095%=      5-min Rain = 0
KOD1 100928Z 24005KT M03/M04 A3033 RMK A01 T10291036  RH  095%=      5-min Rain = 0
KOD1 100929Z 24005KT M03/M04 A3033 RMK A01 T10291036  RH  095%=      5-min Rain = 0
KOD1 100930Z 24004KT M03/M04 A3033 RMK A01 T10291036  RH  095%=      5-min Rain = 0
KOD1 100931Z 24004KT M03/M04 A3033 RMK A01 T10291035  RH  095%=      5-min Rain = 0
KOD1 100932Z 24004KT M03/M04 A3033 RMK A01 T10281035  RH  095%=      5-min Rain = 0
KOD1 100933Z 24004KT M03/M04 A3032 RMK A01 T10281035  RH  095%=      5-min Rain = 0
KOD1 100934Z 24004KT M03/M04 A3032 RMK A01 T10281035  RH  095%=      5-min Rain = 0
KOD1 100935Z 24004KT M03/M03 A3033 RMK A01 T10281034  RH  095%=      5-min Rain = 0
KOD1 100936Z 24004KT M03/M03 A3033 RMK A01 T10281034  RH  095%=      5-min Rain = 0
KOD1 100937Z 24004KT M03/M03 A3033 RMK A01 T10271034  RH  095%=      5-min Rain = 0
KOD1 100938Z 25004KT M03/M03 A3033 RMK A01 T10271033  RH  095%=      5-min Rain = 0
KOD1 100939Z 24004KT M03/M03 A3032 RMK A01 T10261033  RH  095%=      5-min Rain = 0
KOD1 100940Z 24004KT M03/M03 A3033 RMK A01 T10261032  RH  095%=      5-min Rain = 0
KOD1 100941Z 24004KT M03/M03 A3033 RMK A01 T10261032  RH  095%=      5-min Rain = 0
KOD1 100942Z 24003KT M03/M03 A3033 RMK A01 T10251032  RH  095%=      5-min Rain = 0
KOD1 100943Z 24003KT M03/M03 A3033 RMK A01 T10251031  RH  096%=      5-min Rain = 0
KOD1 100944Z 25003KT M02/M03 A3033 RMK A01 T10241031  RH  095%=      5-min Rain = 0
KOD1 100945Z 25003KT M02/M03 A3033 RMK A01 T10241030  RH  095%=      5-min Rain = 0
KOD1 100946Z 26003KT M02/M03 A3033 RMK A01 T10231030  RH  095%=      5-min Rain = 0
KOD1 100947Z 26003KT M02/M03 A3033 RMK A01 T10231030  RH  095%=      5-min Rain = 0
KOD1 100948Z 26004KT M02/M03 A3033 RMK A01 T10231030  RH  095%=      5-min Rain = 0
KOD1 100949Z 26004KT M02/M03 A3033 RMK A01 T10231030  RH  095%=      5-min Rain = 0
KOD1 100950Z 26004KT M02/M03 A3033 RMK A01 T10231030  RH  095%=      5-min Rain = 0
KOD1 100951Z 27004KT M02/M03 A3033 RMK A01 T10241032  RH  094%=      5-min Rain = 0
KOD1 100952Z 27004KT M02/M03 A3033 RMK A01 T10241033  RH  094%=      5-min Rain = 0
KOD1 100953Z 27004KT M03/M03 A3033 RMK A01 T10251033  RH  094%=      5-min Rain = 0
KOD1 100954Z 27004KT M03/M03 A3033 RMK A01 T10261034  RH  094%=      5-min Rain = 0
KOD1 100955Z 28004KT M03/M03 A3033 RMK A01 T10261034  RH  094%=      5-min Rain = 0
KOD1 100956Z 28005KT M03/M03 A3033 RMK A01 T10261034  RH  094%=      5-min Rain = 0
KOD1 100957Z 28004KT M03/M03 A3033 RMK A01 T10261034  RH  094%=      5-min Rain = 0
KOD1 100958Z 28004KT M03/M03 A3033 RMK A01 T10261034  RH  094%=      5-min Rain = 0
KOD1 100959Z 28004KT M03/M04 A3033 RMK A01 T10271035  RH  094%=      5-min Rain = 0
KOD1 101000Z 29004KT M03/M04 A3033 RMK A01 T10271035  RH  094%=      5-min Rain = 0
KOD1 101001Z 28004KT M03/M03 A3033 RMK A01 T10261034  RH  095%=      5-min Rain = 0
KOD1 101002Z 28004KT M03/M03 A3033 RMK A01 T10261034  RH  095%=      5-min Rain = 0
KOD1 101003Z 27004KT M03/M03 A3033 RMK A01 T10261034  RH  095%=      5-min Rain = 0
KOD1 101004Z 27004KT M03/M04 A3033 RMK A01 T10261035  RH  094%=      5-min Rain = 0
KOD1 101005Z 27004KT M03/M04 A3033 RMK A01 T10271035  RH  094%=      5-min Rain = 0
KOD1 101006Z 27004KT M03/M04 A3033 RMK A01 T10281036  RH  094%=      5-min Rain = 0
KOD1 101007Z 28004KT M03/M04 A3033 RMK A01 T10281037  RH  094%=      5-min Rain = 0
KOD1 101008Z 28004KT M03/M04 A3032 RMK A01 T10281037  RH  094%=      5-min Rain = 0
KOD1 101009Z 27003KT M03/M04 A3032 RMK A01 T10281036  RH  094%=      5-min Rain = 0
KOD1 101010Z 27003KT M03/M04 A3032 RMK A01 T10281036  RH  094%=      5-min Rain = 0
KOD1 101011Z 28004KT M03/M04 A3032 RMK A01 T10281036  RH  094%=      5-min Rain = 0
KOD1 101012Z 28004KT M03/M04 A3032 RMK A01 T10291037  RH  094%=      5-min Rain = 0
KOD1 101013Z 27004KT M03/M04 A3032 RMK A01 T10291037  RH  094%=      5-min Rain = 0
KOD1 101014Z 27004KT M03/M04 A3032 RMK A01 T10291036  RH  095%=      5-min Rain = 0
KOD1 101015Z 27004KT M03/M04 A3032 RMK A01 T10291036  RH  095%=      5-min Rain = 0
KOD1 101016Z 28004KT M03/M04 A3032 RMK A01 T10291036  RH  095%=      5-min Rain = 0
KOD1 101017Z 28005KT M03/M04 A3032 RMK A01 T10281036  RH  095%=      5-min Rain = 0
KOD1 101018Z 28005KT M03/M04 A3032 RMK A01 T10281036  RH  095%=      5-min Rain = 0
KOD1 101019Z 28005KT M03/M04 A3032 RMK A01 T10281036  RH  095%=      5-min Rain = 0
KOD1 101020Z 27005KT M03/M04 A3032 RMK A01 T10281036  RH  095%=      5-min Rain = 0
KOD1 101021Z 27006KT M03/M04 A3032 RMK A01 T10291037  RH  094%=      5-min Rain = 0
KOD1 101022Z 27006KT M03/M04 A3032 RMK A01 T10301039  RH  094%=      5-min Rain = 0
KOD1 101023Z 27006KT M03/M04 A3032 RMK A01 T10311040  RH  094%=      5-min Rain = 0
KOD1 101024Z 27007KT M03/M04 A3032 RMK A01 T10321041  RH  094%=      5-min Rain = 0
KOD1 101025Z 28007KT M03/M04 A3032 RMK A01 T10331043  RH  093%=      5-min Rain = 0
KOD1 101026Z 28007KT M04/M04 A3032 RMK A01 T10351044  RH  093%=      5-min Rain = 0
KOD1 101027Z 28007KT M04/M04 A3032 RMK A01 T10351044  RH  094%=      5-min Rain = 0
KOD1 101028Z 28007KT M04/M04 A3032 RMK A01 T10351044  RH  094%=      5-min Rain = 0
KOD1 101029Z 28007KT M04/M04 A3032 RMK A01 T10351043  RH  094%=      5-min Rain = 0
KOD1 101030Z 28007KT M04/M04 A3032 RMK A01 T10361044  RH  094%=      5-min Rain = 0
KOD1 101031Z 28007KT M04/M04 A3032 RMK A01 T10361044  RH  094%=      5-min Rain = 0
KOD1 101032Z 27006KT M04/M05 A3032 RMK A01 T10361045  RH  094%=      5-min Rain = 0
KOD1 101033Z 27006KT M04/M05 A3032 RMK A01 T10371045  RH  094%=      5-min Rain = 0
KOD1 101034Z 27006KT M04/M05 A3032 RMK A01 T10371045  RH  094%=      5-min Rain = 0
KOD1 101035Z 27006KT M04/M05 A3032 RMK A01 T10371045  RH  094%=      5-min Rain = 0
KOD1 101036Z 26006KT M04/M05 A3032 RMK A01 T10371045  RH  094%=      5-min Rain = 0
KOD1 101037Z 26006KT M04/M05 A3032 RMK A01 T10371045  RH  095%=      5-min Rain = 0
KOD1 101038Z 26006KT M04/M05 A3032 RMK A01 T10371045  RH  095%=      5-min Rain = 0
KOD1 101039Z 26006KT M04/M04 A3032 RMK A01 T10371044  RH  095%=      5-min Rain = 0
KOD1 101040Z 26006KT M04/M04 A3032 RMK A01 T10371044  RH  095%=      5-min Rain = 0
KOD1 101041Z 26005KT M04/M04 A3032 RMK A01 T10361043  RH  095%=      5-min Rain = 0
KOD1 101042Z 27005KT M04/M04 A3032 RMK A01 T10361042  RH  095%=      5-min Rain = 0
KOD1 101043Z 27005KT M04/M04 A3032 RMK A01 T10351041  RH  095%=      5-min Rain = 0
KOD1 101044Z 27006KT M03/M04 A3032 RMK A01 T10341040  RH  096%=      5-min Rain = 0
KOD1 101045Z 27006KT M03/M04 A3032 RMK A01 T10331039  RH  096%=      5-min Rain = 0
KOD1 101046Z 27006KT M03/M04 A3032 RMK A01 T10331039  RH  096%=      5-min Rain = 0
KOD1 101047Z 27006KT M03/M04 A3032 RMK A01 T10321038  RH  096%=      5-min Rain = 0
KOD1 101048Z 27006KT M03/M04 A3032 RMK A01 T10321038  RH  095%=      5-min Rain = 0
KOD1 101049Z 27006KT M03/M04 A3032 RMK A01 T10321038  RH  095%=      5-min Rain = 0
KOD1 101050Z 27007KT M03/M04 A3032 RMK A01 T10311039  RH  095%=      5-min Rain = 0
KOD1 101051Z 27008KT M03/M04 A3032 RMK A01 T10321039  RH  095%=      5-min Rain = 0
KOD1 101052Z 27007KT M03/M04 A3032 RMK A01 T10311039  RH  095%=      5-min Rain = 0
KOD1 101053Z 27007KT M03/M04 A3032 RMK A01 T10311039  RH  095%=      5-min Rain = 0
KOD1 101054Z 27007KT M03/M04 A3032 RMK A01 T10311039  RH  095%=      5-min Rain = 0
KOD1 101055Z 27007KT M03/M04 A3032 RMK A01 T10321039  RH  094%=      5-min Rain = 0
KOD1 101056Z 27007KT M03/M04 A3032 RMK A01 T10321040  RH  094%=      5-min Rain = 0
KOD1 101057Z 26006KT M03/M04 A3032 RMK A01 T10331041  RH  094%=      5-min Rain = 0
KOD1 101058Z 25005KT M03/M04 A3032 RMK A01 T10341043  RH  093%=      5-min Rain = 0
KOD1 101059Z 26005KT M04/M05 A3032 RMK A01 T10351045  RH  093%=      5-min Rain = 0
KOD1 101100Z 26005KT M04/M05 A3032 RMK A01 T10361045  RH  093%=      5-min Rain = 0
KOD1 101101Z 26005KT M04/M05 A3032 RMK A01 T10371046  RH  094%=      5-min Rain = 0
KOD1 101102Z 26005KT M04/M05 A3032 RMK A01 T10371046  RH  094%=      5-min Rain = 0
KOD1 101103Z 26004KT M04/M05 A3032 RMK A01 T10371045  RH  095%=      5-min Rain = 0
KOD1 101104Z 26004KT M04/M04 A3032 RMK A01 T10361042  RH  095%=      5-min Rain = 0
KOD1 101105Z 26005KT M03/M04 A3032 RMK A01 T10341040  RH  096%=      5-min Rain = 0
KOD1 101106Z 26005KT M03/M04 A3032 RMK A01 T10341040  RH  096%=      5-min Rain = 0
KOD1 101107Z 26005KT M03/M04 A3032 RMK A01 T10331040  RH  095%=      5-min Rain = 0
KOD1 101108Z 26004KT M03/M04 A3032 RMK A01 T10331040  RH  095%=      5-min Rain = 0
KOD1 101109Z 26004KT M03/M04 A3032 RMK A01 T10331040  RH  095%=      5-min Rain = 0
KOD1 101110Z 26004KT M03/M04 A3032 RMK A01 T10331040  RH  095%=      5-min Rain = 0
KOD1 101111Z 26004KT M03/M04 A3032 RMK A01 T10331040  RH  095%=      5-min Rain = 0
KOD1 101112Z 26004KT M03/M04 A3032 RMK A01 T10331040  RH  095%=      5-min Rain = 0
KOD1 101113Z 25004KT M03/M04 A3032 RMK A01 T10331040  RH  095%=      5-min Rain = 0
KOD1 101114Z 25004KT M03/M04 A3032 RMK A01 T10331040  RH  095%=      5-min Rain = 0
KOD1 101115Z 25004KT M03/M04 A3032 RMK A01 T10331040  RH  095%=      5-min Rain = 0
KOD1 101116Z 25004KT M03/M04 A3032 RMK A01 T10331040  RH  095%=      5-min Rain = 0
KOD1 101117Z 25004KT M03/M04 A3032 RMK A01 T10331040  RH  095%=      5-min Rain = 0
KOD1 101118Z 25003KT M03/M04 A3032 RMK A01 T10331040  RH  095%=      5-min Rain = 0
KOD1 101119Z 24003KT M03/M04 A3032 RMK A01 T10331040  RH  095%=      5-min Rain = 0
KOD1 101120Z 24003KT M03/M04 A3032 RMK A01 T10341041  RH  095%=      5-min Rain = 0
KOD1 101121Z 24003KT M03/M04 A3032 RMK A01 T10341042  RH  095%=      5-min Rain = 0
KOD1 101122Z 23003KT M03/M04 A3032 RMK A01 T10341042  RH  095%=      5-min Rain = 0
KOD1 101123Z 23003KT M03/M04 A3032 RMK A01 T10341042  RH  095%=      5-min Rain = 0
KOD1 101124Z 23004KT M03/M04 A3032 RMK A01 T10341041  RH  095%=      5-min Rain = 0
KOD1 101125Z 23004KT M03/M04 A3032 RMK A01 T10341040  RH  096%=      5-min Rain = 0
KOD1 101126Z 23004KT M03/M04 A3032 RMK A01 T10331039  RH  096%=      5-min Rain = 0
KOD1 101127Z 23005KT M03/M04 A3032 RMK A01 T10331039  RH  095%=      5-min Rain = 0
KOD1 101128Z 23005KT M03/M04 A3032 RMK A01 T10331040  RH  095%=      5-min Rain = 0
KOD1 101129Z 23005KT M03/M04 A3032 RMK A01 T10331040  RH  095%=      5-min Rain = 0
KOD1 101130Z 23006KT M03/M04 A3032 RMK A01 T10341041  RH  095%=      5-min Rain = 0
KOD1 101131Z 23006KT M03/M04 A3032 RMK A01 T10341042  RH  095%=      5-min Rain = 0
KOD1 101132Z 23006KT M04/M04 A3032 RMK A01 T10351043  RH  095%=      5-min Rain = 0
KOD1 101133Z 23006KT M04/M04 A3032 RMK A01 T10361043  RH  095%=      5-min Rain = 0
KOD1 101134Z 23006KT M04/M04 A3032 RMK A01 T10371044  RH  095%=      5-min Rain = 0
KOD1 101135Z 23006KT M04/M05 A3032 RMK A01 T10371045  RH  095%=      5-min Rain = 0
KOD1 101136Z 24006KT M04/M05 A3032 RMK A01 T10381046  RH  095%=      5-min Rain = 0
KOD1 101137Z 24006KT M04/M05 A3032 RMK A01 T10381046  RH  095%=      5-min Rain = 0
KOD1 101138Z 23006KT M04/M05 A3032 RMK A01 T10391046  RH  095%=      5-min Rain = 0
KOD1 101139Z 23006KT M04/M05 A3032 RMK A01 T10391046  RH  095%=      5-min Rain = 0
KOD1 101140Z 23006KT M04/M05 A3032 RMK A01 T10391046  RH  095%=      5-min Rain = 0
KOD1 101141Z 23006KT M04/M05 A3032 RMK A01 T10391045  RH  095%=      5-min Rain = 0
KOD1 101142Z 23006KT M04/M05 A3032 RMK A01 T10391045  RH  095%=      5-min Rain = 0
KOD1 101143Z 24006KT M04/M04 A3032 RMK A01 T10381044  RH  096%=      5-min Rain = 0
KOD1 101144Z 24006KT M04/M04 A3032 RMK A01 T10381043  RH  096%=      5-min Rain = 0
KOD1 101145Z 24006KT M04/M04 A3032 RMK A01 T10371043  RH  096%=      5-min Rain = 0
KOD1 101146Z 24006KT M04/M04 A3032 RMK A01 T10371043  RH  096%=      5-min Rain = 0
KOD1 101147Z 24006KT M04/M04 A3032 RMK A01 T10371043  RH  096%=      5-min Rain = 0
KOD1 101148Z 24006KT M04/M04 A3032 RMK A01 T10361042  RH  096%=      5-min Rain = 0
KOD1 101149Z 24006KT M04/M04 A3032 RMK A01 T10361043  RH  095%=      5-min Rain = 0
KOD1 101150Z 24007KT M04/M04 A3032 RMK A01 T10371043  RH  095%=      5-min Rain = 0
KOD1 101151Z 24006KT M04/M04 A3032 RMK A01 T10371044  RH  095%=      5-min Rain = 0
KOD1 101152Z 24006KT M04/M05 A3032 RMK A01 T10381045  RH  095%=      5-min Rain = 0
KOD1 101153Z 24006KT M04/M05 A3032 RMK A01 T10381045  RH  095%=      5-min Rain = 0
KOD1 101154Z 24007KT M04/M05 A3032 RMK A01 T10391046  RH  095%=      5-min Rain = 0
KOD1 101155Z 24007KT M04/M05 A3032 RMK A01 T10391046  RH  095%=      5-min Rain = 0
KOD1 101156Z 24007KT M04/M05 A3032 RMK A01 T10391046  RH  095%=      5-min Rain = 0
KOD1 101157Z 24006KT M04/M05 A3032 RMK A01 T10391045  RH  096%=      5-min Rain = 0
KOD1 101158Z 24006KT M04/M05 A3032 RMK A01 T10381045  RH  095%=      5-min Rain = 0
KOD1 101159Z 24006KT M04/M05 A3033 RMK A01 T10381045  RH  096%=      5-min Rain = 0
KOD1 101200Z 24006KT M04/M04 A3033 RMK A01 T10381044  RH  096%=      5-min Rain = 0
KOD1 101201Z 25006KT M04/M04 A3033 RMK A01 T10381044  RH  095%=      5-min Rain = 0
KOD1 101202Z 25006KT M04/M04 A3033 RMK A01 T10381044  RH  096%=      5-min Rain = 0
KOD1 101203Z 25006KT M04/M04 A3033 RMK A01 T10381044  RH  096%=      5-min Rain = 0
KOD1 101204Z 25006KT M04/M04 A3033 RMK A01 T10381044  RH  095%=      5-min Rain = 0
KOD1 101205Z 25006KT M04/M04 A3033 RMK A01 T10381044  RH  095%=      5-min Rain = 0
KOD1 101206Z 24006KT M04/M04 A3033 RMK A01 T10381044  RH  095%=      5-min Rain = 0
KOD1 101207Z 24006KT M04/M05 A3033 RMK A01 T10381045  RH  095%=      5-min Rain = 0
KOD1 101208Z 25006KT M04/M05 A3033 RMK A01 T10381045  RH  095%=      5-min Rain = 0
KOD1 101209Z 25005KT M04/M05 A3033 RMK A01 T10381045  RH  095%=      5-min Rain = 0
KOD1 101210Z 25005KT M04/M05 A3033 RMK A01 T10391045  RH  095%=      5-min Rain = 0
KOD1 101211Z 25005KT M04/M05 A3033 RMK A01 T10381045  RH  095%=      5-min Rain = 0
KOD1 101212Z 25006KT M04/M05 A3033 RMK A01 T10381045  RH  095%=      5-min Rain = 0
KOD1 101213Z 25005KT M04/M05 A3033 RMK A01 T10381045  RH  095%=      5-min Rain = 0
KOD1 101214Z 25005KT M04/M05 A3033 RMK A01 T10381045  RH  095%=      5-min Rain = 0
KOD1 101215Z 25005KT M04/M05 A3033 RMK A01 T10391045  RH  095%=      5-min Rain = 0
KOD1 101216Z 25005KT M04/M05 A3033 RMK A01 T10391045  RH  095%=      5-min Rain = 0
KOD1 101217Z 25005KT M04/M04 A3033 RMK A01 T10381044  RH  096%=      5-min Rain = 0
KOD1 101218Z 24005KT M04/M04 A3033 RMK A01 T10381044  RH  096%=      5-min Rain = 0
KOD1 101219Z 25004KT M04/M04 A3033 RMK A01 T10381044  RH  096%=      5-min Rain = 0
KOD1 101220Z 25004KT M04/M04 A3033 RMK A01 T10381044  RH  096%=      5-min Rain = 0
KOD1 101221Z 25004KT M04/M04 A3033 RMK A01 T10371043  RH  096%=      5-min Rain = 0
KOD1 101222Z 24005KT M04/M04 A3033 RMK A01 T10371043  RH  096%=      5-min Rain = 0
KOD1 101223Z 24005KT M04/M04 A3033 RMK A01 T10371043  RH  096%=      5-min Rain = 0
KOD1 101224Z 24005KT M04/M04 A3033 RMK A01 T10361042  RH  096%=      5-min Rain = 0
KOD1 101225Z 24005KT M04/M04 A3033 RMK A01 T10361042  RH  096%=      5-min Rain = 0
KOD1 101226Z 24006KT M04/M04 A3033 RMK A01 T10361042  RH  096%=      5-min Rain = 0
KOD1 101227Z 24006KT M04/M04 A3033 RMK A01 T10361042  RH  096%=      5-min Rain = 0
KOD1 101228Z 24006KT M04/M04 A3033 RMK A01 T10361042  RH  096%=      5-min Rain = 0
KOD1 101229Z 24006KT M04/M04 A3033 RMK A01 T10361042  RH  096%=      5-min Rain = 0
KOD1 101230Z 24006KT M04/M04 A3033 RMK A01 T10361042  RH  096%=      5-min Rain = 0
KOD1 101231Z 24005KT M04/M04 A3033 RMK A01 T10361043  RH  095%=      5-min Rain = 0
KOD1 101232Z 24005KT M04/M04 A3033 RMK A01 T10361043  RH  095%=      5-min Rain = 0
KOD1 101233Z 25005KT M04/M04 A3033 RMK A01 T10371044  RH  095%=      5-min Rain = 0
KOD1 101234Z 25005KT M04/M04 A3033 RMK A01 T10371044  RH  095%=      5-min Rain = 0
KOD1 101235Z 25005KT M04/M05 A3033 RMK A01 T10381045  RH  095%=      5-min Rain = 0
KOD1 101236Z 25005KT M04/M05 A3033 RMK A01 T10381045  RH  095%=      5-min Rain = 0
KOD1 101237Z 25006KT M04/M05 A3033 RMK A01 T10391045  RH  095%=      5-min Rain = 0
KOD1 101238Z 25006KT M04/M05 A3034 RMK A01 T10391045  RH  095%=      5-min Rain = 0
KOD1 101239Z 25005KT M04/M05 A3034 RMK A01 T10391045  RH  095%=      5-min Rain = 0
KOD1 101240Z 25005KT M04/M05 A3034 RMK A01 T10391045  RH  095%=      5-min Rain = 0
KOD1 101241Z 25005KT M04/M05 A3034 RMK A01 T10391045  RH  095%=      5-min Rain = 0
KOD1 101242Z 25005KT M04/M05 A3034 RMK A01 T10391045  RH  095%=      5-min Rain = 0
KOD1 101243Z 25005KT M04/M05 A3034 RMK A01 T10391045  RH  095%=      5-min Rain = 0
KOD1 101244Z 25005KT M04/M05 A3034 RMK A01 T10391045  RH  095%=      5-min Rain = 0
KOD1 101245Z 25005KT M04/M05 A3034 RMK A01 T10391045  RH  095%=      5-min Rain = 0
KOD1 101246Z 25005KT M04/M05 A3034 RMK A01 T10391045  RH  095%=      5-min Rain = 0
KOD1 101247Z 25005KT M04/M05 A3034 RMK A01 T10391045  RH  095%=      5-min Rain = 0
KOD1 101248Z 25005KT M04/M05 A3034 RMK A01 T10391045  RH  095%=      5-min Rain = 0
KOD1 101249Z 25005KT M04/M05 A3034 RMK A01 T10391045  RH  095%=      5-min Rain = 0
KOD1 101250Z 25005KT M04/M05 A3034 RMK A01 T10391045  RH  095%=      5-min Rain = 0
KOD1 101251Z 25005KT M04/M05 A3034 RMK A01 T10391045  RH  095%=      5-min Rain = 0
KOD1 101252Z 26004KT M04/M05 A3034 RMK A01 T10391045  RH  095%=      5-min Rain = 0
KOD1 101253Z 26004KT M04/M05 A3034 RMK A01 T10391045  RH  096%=      5-min Rain = 0
KOD1 101254Z 26004KT M04/M04 A3034 RMK A01 T10381044  RH  096%=      5-min Rain = 0
KOD1 101255Z 26005KT M04/M04 A3034 RMK A01 T10381043  RH  096%=      5-min Rain = 0
KOD1 101256Z 27005KT M04/M04 A3035 RMK A01 T10371043  RH  096%=      5-min Rain = 0
KOD1 101257Z 28005KT M04/M04 A3035 RMK A01 T10371042  RH  096%=      5-min Rain = 0
KOD1 101258Z 29005KT M04/M04 A3035 RMK A01 T10361042  RH  096%=      5-min Rain = 0
KOD1 101259Z 29006KT M04/M04 A3035 RMK A01 T10361041  RH  096%=      5-min Rain = 0
KOD1 101300Z 30006KT M04/M04 A3035 RMK A01 T10351041  RH  096%=      5-min Rain = 0
KOD1 101301Z 29006KT M04/M04 A3035 RMK A01 T10361042  RH  095%=      5-min Rain = 0
KOD1 101302Z 29006KT M04/M04 A3035 RMK A01 T10371044  RH  095%=      5-min Rain = 0
KOD1 101303Z 29005KT M04/M05 A3035 RMK A01 T10381045  RH  095%=      5-min Rain = 0
KOD1 101304Z 29005KT M04/M05 A3036 RMK A01 T10381045  RH  095%=      5-min Rain = 0
KOD1 101305Z 31005KT M04/M05 A3036 RMK A01 T10391046  RH  095%=      5-min Rain = 0
KOD1 101306Z 28004KT M04/M05 A3035 RMK A01 T10391047  RH  095%=      5-min Rain = 0
KOD1 101307Z 29004KT M04/M05 A3036 RMK A01 T10391046  RH  095%=      5-min Rain = 0
KOD1 101308Z 30005KT M04/M05 A3036 RMK A01 T10401047  RH  095%=      5-min Rain = 0
KOD1 101309Z 28005KT M04/M05 A3036 RMK A01 T10401048  RH  095%=      5-min Rain = 0
KOD1 101310Z 29005KT M04/M05 A3036 RMK A01 T10411048  RH  095%=      5-min Rain = 0
KOD1 101311Z 29005KT M04/M05 A3036 RMK A01 T10421049  RH  094%=      5-min Rain = 0
KOD1 101312Z 29004KT M04/M05 A3036 RMK A01 T10421050  RH  095%=      5-min Rain = 0
KOD1 101313Z 29004KT M04/M05 A3036 RMK A01 T10421050  RH  095%=      5-min Rain = 0
KOD1 101314Z 29004KT M04/M05 A3036 RMK A01 T10431050  RH  095%=      5-min Rain = 0
KOD1 101315Z 29004KT M04/M05 A3036 RMK A01 T10431049  RH  095%=      5-min Rain = 0
KOD1 101316Z 28004KT M04/M05 A3036 RMK A01 T10431049  RH  095%=      5-min Rain = 0
KOD1 101317Z 28004KT M04/M05 A3036 RMK A01 T10431049  RH  095%=      5-min Rain = 0
KOD1 101318Z 27004KT M04/M05 A3036 RMK A01 T10421049  RH  095%=      5-min Rain = 0
KOD1 101319Z 26004KT M04/M05 A3036 RMK A01 T10431049  RH  095%=      5-min Rain = 0
KOD1 101320Z 27004KT M04/M05 A3036 RMK A01 T10431050  RH  095%=      5-min Rain = 0
KOD1 101321Z 27004KT M04/M05 A3036 RMK A01 T10431050  RH  095%=      5-min Rain = 0
KOD1 101322Z 27004KT M04/M05 A3036 RMK A01 T10441051  RH  095%=      5-min Rain = 0
KOD1 101323Z 27004KT M04/M05 A3036 RMK A01 T10441051  RH  095%=      5-min Rain = 0
KOD1 101324Z 27004KT M04/M05 A3036 RMK A01 T10441051  RH  095%=      5-min Rain = 0
KOD1 101325Z 27004KT M04/M05 A3036 RMK A01 T10441051  RH  095%=      5-min Rain = 0
KOD1 101326Z 26004KT M04/M05 A3037 RMK A01 T10441050  RH  095%=      5-min Rain = 0
KOD1 101327Z 26004KT M04/M05 A3036 RMK A01 T10441050  RH  095%=      5-min Rain = 0
KOD1 101328Z 26004KT M04/M05 A3036 RMK A01 T10441051  RH  095%=      5-min Rain = 0
KOD1 101329Z 26004KT M04/M05 A3036 RMK A01 T10441051  RH  095%=      5-min Rain = 0
KOD1 101330Z 26004KT M04/M05 A3036 RMK A01 T10441051  RH  095%=      5-min Rain = 0
KOD1 101331Z 26003KT M05/M05 A3036 RMK A01 T10451051  RH  095%=      5-min Rain = 0
KOD1 101332Z 27004KT M04/M05 A3036 RMK A01 T10441051  RH  095%=      5-min Rain = 0
KOD1 101333Z 27004KT M04/M05 A3036 RMK A01 T10441050  RH  096%=      5-min Rain = 0
KOD1 101334Z 27004KT M04/M05 A3037 RMK A01 T10441050  RH  096%=      5-min Rain = 0
KOD1 101335Z 27004KT M04/M05 A3037 RMK A01 T10441050  RH  096%=      5-min Rain = 0
KOD1 101336Z 27004KT M04/M05 A3037 RMK A01 T10431049  RH  096%=      5-min Rain = 0
KOD1 101337Z 26004KT M04/M05 A3037 RMK A01 T10421048  RH  096%=      5-min Rain = 0
KOD1 101338Z 27004KT M04/M05 A3037 RMK A01 T10421048  RH  096%=      5-min Rain = 0
KOD1 101339Z 26003KT M04/M05 A3037 RMK A01 T10421048  RH  096%=      5-min Rain = 0
KOD1 101340Z 26004KT M04/M05 A3036 RMK A01 T10421048  RH  095%=      5-min Rain = 0
KOD1 101341Z 26004KT M04/M05 A3036 RMK A01 T10421049  RH  095%=      5-min Rain = 0
KOD1 101342Z 26003KT M04/M05 A3036 RMK A01 T10421048  RH  095%=      5-min Rain = 0
KOD1 101343Z 26003KT M04/M05 A3036 RMK A01 T10421048  RH  096%=      5-min Rain = 0
KOD1 101344Z 26004KT M04/M05 A3036 RMK A01 T10411047  RH  096%=      5-min Rain = 0
KOD1 101345Z 26004KT M04/M05 A3036 RMK A01 T10411047  RH  096%=      5-min Rain = 0
KOD1 101346Z 26004KT M04/M05 A3036 RMK A01 T10411047  RH  096%=      5-min Rain = 0
KOD1 101347Z 25004KT M04/M05 A3036 RMK A01 T10401046  RH  096%=      5-min Rain = 0
KOD1 101348Z 24003KT M04/M05 A3037 RMK A01 T10401046  RH  096%=      5-min Rain = 0
KOD1 101349Z 25004KT M04/M05 A3037 RMK A01 T10391045  RH  096%=      5-min Rain = 0
KOD1 101350Z 25004KT M04/M05 A3037 RMK A01 T10391045  RH  095%=      5-min Rain = 0
KOD1 101351Z 26004KT M04/M05 A3037 RMK A01 T10391045  RH  095%=      5-min Rain = 0
KOD1 101352Z 26004KT M04/M05 A3037 RMK A01 T10391046  RH  095%=      5-min Rain = 0
KOD1 101353Z 26004KT M04/M05 A3037 RMK A01 T10391046  RH  095%=      5-min Rain = 0
KOD1 101354Z 26004KT M04/M05 A3037 RMK A01 T10391045  RH  095%=      5-min Rain = 0
KOD1 101355Z 27004KT M04/M05 A3037 RMK A01 T10381045  RH  095%=      5-min Rain = 0
KOD1 101356Z 27004KT M04/M05 A3037 RMK A01 T10381045  RH  095%=      5-min Rain = 0
KOD1 101357Z 27004KT M04/M05 A3037 RMK A01 T10381045  RH  095%=      5-min Rain = 0
KOD1 101358Z 27004KT M04/M05 A3037 RMK A01 T10381045  RH  095%=      5-min Rain = 0
KOD1 101359Z 28004KT M04/M04 A3037 RMK A01 T10371044  RH  095%=      5-min Rain = 0
KOD1 101400Z 28005KT M04/M04 A3037 RMK A01 T10371044  RH  095%=      5-min Rain = 0
KOD1 101401Z 28005KT M04/M04 A3037 RMK A01 T10371044  RH  095%=      5-min Rain = 0
KOD1 101402Z 28005KT M04/M04 A3037 RMK A01 T10361043  RH  095%=      5-min Rain = 0
KOD1 101403Z 29006KT M04/M04 A3037 RMK A01 T10361043  RH  095%=      5-min Rain = 0
KOD1 101404Z 29005KT M04/M04 A3037 RMK A01 T10351042  RH  095%=      5-min Rain = 0
KOD1 101405Z 29005KT M03/M04 A3037 RMK A01 T10341041  RH  095%=      5-min Rain = 0
KOD1 101406Z 28005KT M03/M04 A3037 RMK A01 T10341041  RH  095%=      5-min Rain = 0
KOD1 101407Z 28004KT M03/M04 A3037 RMK A01 T10341041  RH  095%=      5-min Rain = 0
KOD1 101408Z 28004KT M03/M04 A3037 RMK A01 T10331041  RH  094%=      5-min Rain = 0
KOD1 101409Z 28004KT M03/M04 A3037 RMK A01 T10331041  RH  094%=      5-min Rain = 0
KOD1 101410Z 28004KT M03/M04 A3037 RMK A01 T10331042  RH  094%=      5-min Rain = 0
KOD1 101411Z 28004KT M03/M04 A3037 RMK A01 T10341042  RH  094%=      5-min Rain = 0
KOD1 101412Z 28004KT M03/M04 A3037 RMK A01 T10341042  RH  094%=      5-min Rain = 0
KOD1 101413Z 27004KT M03/M04 A3037 RMK A01 T10341042  RH  094%=      5-min Rain = 0
KOD1 101414Z 27004KT M03/M04 A3037 RMK A01 T10331042  RH  094%=      5-min Rain = 0
KOD1 101415Z 27004KT M03/M04 A3037 RMK A01 T10331042  RH  094%=      5-min Rain = 0
KOD1 101416Z 27004KT M03/M04 A3037 RMK A01 T10331041  RH  094%=      5-min Rain = 0
KOD1 101417Z 27004KT M03/M04 A3037 RMK A01 T10321041  RH  094%=      5-min Rain = 0
KOD1 101418Z 28004KT M03/M04 A3037 RMK A01 T10311040  RH  094%=      5-min Rain = 0
KOD1 101419Z 29004KT M03/M04 A3037 RMK A01 T10301039  RH  094%=      5-min Rain = 0
KOD1 101420Z 29005KT M03/M04 A3037 RMK A01 T10291037  RH  094%=      5-min Rain = 0
KOD1 101421Z 29005KT M03/M04 A3037 RMK A01 T10281035  RH  095%=      5-min Rain = 0
KOD1 101422Z 29006KT M03/M03 A3037 RMK A01 T10261032  RH  095%=      5-min Rain = 0
KOD1 101423Z 29005KT M02/M03 A3037 RMK A01 T10241031  RH  095%=      5-min Rain = 0
KOD1 101424Z 29006KT M02/M03 A3037 RMK A01 T10221029  RH  095%=      5-min Rain = 0
KOD1 101425Z 29005KT M02/M03 A3037 RMK A01 T10211029  RH  094%=      5-min Rain = 0
KOD1 101426Z 29005KT M02/M03 A3037 RMK A01 T10201028  RH  094%=      5-min Rain = 0
KOD1 101427Z 30005KT M02/M03 A3038 RMK A01 T10191027  RH  094%=      5-min Rain = 0
KOD1 101428Z 30005KT M02/M03 A3038 RMK A01 T10181027  RH  094%=      5-min Rain = 0
KOD1 101429Z 30005KT M02/M03 A3038 RMK A01 T10171026  RH  093%=      5-min Rain = 0
KOD1 101430Z 30005KT M02/M03 A3038 RMK A01 T10171027  RH  093%=      5-min Rain = 0
KOD1 101431Z 30005KT M02/M03 A3038 RMK A01 T10161027  RH  093%=      5-min Rain = 0
KOD1 101432Z 30006KT M02/M03 A3038 RMK A01 T10161027  RH  092%=      5-min Rain = 0
KOD1 101433Z 30006KT M02/M03 A3038 RMK A01 T10151026  RH  092%=      5-min Rain = 0
KOD1 101434Z 31005KT M01/M03 A3038 RMK A01 T10141025  RH  092%=      5-min Rain = 0
KOD1 101435Z 31006KT M01/M02 A3038 RMK A01 T10131024  RH  092%=      5-min Rain = 0
KOD1 101436Z 30005KT M01/M02 A3038 RMK A01 T10131024  RH  092%=      5-min Rain = 0
KOD1 101437Z 30005KT M01/M02 A3038 RMK A01 T10121024  RH  092%=      5-min Rain = 0
KOD1 101438Z 30005KT M01/M02 A3038 RMK A01 T10121024  RH  091%=      5-min Rain = 0
KOD1 101439Z 30006KT M01/M02 A3038 RMK A01 T10111024  RH  091%=      5-min Rain = 0
KOD1 101440Z 30005KT M01/M02 A3038 RMK A01 T10111023  RH  091%=      5-min Rain = 0
KOD1 101441Z 30005KT M01/M02 A3038 RMK A01 T10101023  RH  091%=      5-min Rain = 0
KOD1 101442Z 30005KT M01/M02 A3038 RMK A01 T10091022  RH  091%=      5-min Rain = 0
KOD1 101443Z 30005KT M01/M02 A3038 RMK A01 T10091022  RH  091%=      5-min Rain = 0
KOD1 101444Z 31004KT M01/M02 A3038 RMK A01 T10081022  RH  090%=      5-min Rain = 0
KOD1 101445Z 31004KT M01/M02 A3038 RMK A01 T10081022  RH  090%=      5-min Rain = 0
KOD1 101446Z 31005KT M01/M02 A3038 RMK A01 T10071022  RH  090%=      5-min Rain = 0
KOD1 101447Z 31005KT M01/M02 A3038 RMK A01 T10071021  RH  090%=      5-min Rain = 0
KOD1 101448Z 31004KT M01/M02 A3038 RMK A01 T10061022  RH  089%=      5-min Rain = 0
KOD1 101449Z 30004KT M01/M02 A3038 RMK A01 T10061021  RH  090%=      5-min Rain = 0
KOD1 101450Z 29004KT M01/M02 A3038 RMK A01 T10051019  RH  090%=      5-min Rain = 0
KOD1 101451Z 28004KT M00/M02 A3038 RMK A01 T10041019  RH  090%=      5-min Rain = 0
KOD1 101452Z 29003KT M00/M02 A3038 RMK A01 T10041019  RH  090%=      5-min Rain = 0
KOD1 101453Z 30004KT M00/M02 A3038 RMK A01 T10031019  RH  089%=      5-min Rain = 0
KOD1 101454Z 29004KT M00/M02 A3038 RMK A01 T10031019  RH  089%=      5-min Rain = 0
KOD1 101455Z 29003KT M00/M02 A3039 RMK A01 T10031018  RH  089%=      5-min Rain = 0
KOD1 101456Z 30004KT M00/M02 A3039 RMK A01 T10031018  RH  089%=      5-min Rain = 0
KOD1 101457Z 30004KT M00/M02 A3039 RMK A01 T10021019  RH  089%=      5-min Rain = 0
KOD1 101458Z 30004KT M00/M02 A3039 RMK A01 T10031020  RH  088%=      5-min Rain = 0
KOD1 101459Z 30005KT M00/M02 A3039 RMK A01 T10021019  RH  089%=      5-min Rain = 0
KOD1 101500Z 30004KT M00/M02 A3039 RMK A01 T10021018  RH  089%=      5-min Rain = 0
KOD1 101501Z 30004KT M00/M02 A3039 RMK A01 T10011018  RH  088%=      5-min Rain = 0
KOD1 101502Z 31004KT M00/M02 A3039 RMK A01 T10011017  RH  088%=      5-min Rain = 0
KOD1 101503Z 30004KT 00/02 A3039 RMK A01 T00-00-18  RH  088%=      5-min Rain = 0
KOD1 101504Z 30003KT 00/M02 A3039 RMK A01 T00011016  RH  088%=      5-min Rain = 0
KOD1 101505Z 30005KT 00/M02 A3039 RMK A01 T00021015  RH  088%=      5-min Rain = 0
KOD1 101506Z 30006KT 00/M02 A3039 RMK A01 T00031016  RH  087%=      5-min Rain = 0
KOD1 101507Z 30006KT 00/M02 A3039 RMK A01 T00031017  RH  087%=      5-min Rain = 0
KOD1 101508Z 31005KT 00/M02 A3039 RMK A01 T00041018  RH  085%=      5-min Rain = 0
KOD1 101509Z 31004KT 01/M02 A3039 RMK A01 T00051016  RH  086%=      5-min Rain = 0
KOD1 101510Z 32004KT 01/M01 A3039 RMK A01 T00061014  RH  086%=      5-min Rain = 0
KOD1 101511Z 31004KT 01/M01 A3039 RMK A01 T00081012  RH  087%=      5-min Rain = 0
KOD1 101512Z 31006KT 01/M01 A3039 RMK A01 T00091014  RH  085%=      5-min Rain = 0
KOD1 101513Z 31004KT 01/M01 A3039 RMK A01 T00091014  RH  085%=      5-min Rain = 0
KOD1 101514Z 30004KT 01/M01 A3039 RMK A01 T00101013  RH  085%=      5-min Rain = 0
KOD1 101515Z 29004KT 01/M01 A3039 RMK A01 T00111013  RH  084%=      5-min Rain = 0
KOD1 101516Z 30004KT 01/M01 A3039 RMK A01 T00121013  RH  084%=      5-min Rain = 0
KOD1 101517Z 30004KT 01/M01 A3039 RMK A01 T00131011  RH  085%=      5-min Rain = 0
KOD1 101518Z 30004KT 01/M01 A3039 RMK A01 T00131011  RH  084%=      5-min Rain = 0
KOD1 101519Z 30004KT 02/M01 A3039 RMK A01 T00151009  RH  084%=      5-min Rain = 0
KOD1 101520Z 29004KT 02/M01 A3039 RMK A01 T00161011  RH  083%=      5-min Rain = 0
KOD1 101521Z 29004KT 02/M01 A304 RMK A01 T00161012  RH  082%=      5-min Rain = 0
KOD1 101522Z 30004KT 02/M01 A304 RMK A01 T00171011  RH  082%=      5-min Rain = 0
KOD1 101523Z 30005KT 02/M01 A304 RMK A01 T00181011  RH  081%=      5-min Rain = 0
KOD1 101524Z 31006KT 02/M01 A304 RMK A01 T00181013  RH  080%=      5-min Rain = 0
KOD1 101525Z 31006KT 02/M02 A304 RMK A01 T00191015  RH  078%=      5-min Rain = 0
KOD1 101526Z 31005KT 02/M02 A304 RMK A01 T00191015  RH  078%=      5-min Rain = 0
KOD1 101527Z 31005KT 02/M01 A304 RMK A01 T00201013  RH  079%=      5-min Rain = 0
KOD1 101528Z 32005KT 02/M02 A304 RMK A01 T00211015  RH  077%=      5-min Rain = 0
KOD1 101529Z 31005KT 02/M02 A304 RMK A01 T00221015  RH  077%=      5-min Rain = 0
KOD1 101530Z 32005KT 02/M01 A304 RMK A01 T00231014  RH  077%=      5-min Rain = 0
KOD1 101531Z 31004KT 02/M01 A304 RMK A01 T00241014  RH  076%=      5-min Rain = 0
KOD1 101532Z 30004KT 03/M01 A304 RMK A01 T00251012  RH  077%=      5-min Rain = 0
KOD1 101533Z 31005KT 03/M01 A304 RMK A01 T00261011  RH  076%=      5-min Rain = 0
KOD1 101534Z 31005KT 03/M01 A304 RMK A01 T00271013  RH  075%=      5-min Rain = 0
KOD1 101535Z 31004KT 03/M02 A304 RMK A01 T00281015  RH  073%=      5-min Rain = 0
KOD1 101536Z 30004KT 03/M01 A304 RMK A01 T00291014  RH  073%=      5-min Rain = 0
KOD1 101537Z 31004KT 03/M01 A304 RMK A01 T00301014  RH  073%=      5-min Rain = 0
KOD1 101538Z 31004KT 03/M02 A304 RMK A01 T00311015  RH  072%=      5-min Rain = 0
KOD1 101539Z 32005KT 03/M02 A304 RMK A01 T00321017  RH  070%=      5-min Rain = 0
KOD1 101540Z 32005KT 03/M02 A304 RMK A01 T00321018  RH  070%=      5-min Rain = 0
KOD1 101541Z 32003KT 03/M02 A3039 RMK A01 T00331015  RH  071%=      5-min Rain = 0
KOD1 101542Z 32005KT 03/M02 A3039 RMK A01 T00341017  RH  069%=      5-min Rain = 0
KOD1 101543Z 31005KT 03/M02 A3039 RMK A01 T00341018  RH  069%=      5-min Rain = 0
KOD1 101544Z 32005KT 04/M02 A3039 RMK A01 T00351018  RH  068%=      5-min Rain = 0
KOD1 101545Z 32006KT 04/M02 A3039 RMK A01 T00351021  RH  067%=      5-min Rain = 0
KOD1 101546Z 31006KT 04/M02 A3039 RMK A01 T00361019  RH  067%=      5-min Rain = 0
KOD1 101547Z 31005KT 04/M02 A3039 RMK A01 T00361021  RH  066%=      5-min Rain = 0
KOD1 101548Z 31005KT 04/M02 A3039 RMK A01 T00371020  RH  066%=      5-min Rain = 0
KOD1 101549Z 31006KT 04/M02 A3039 RMK A01 T00371024  RH  064%=      5-min Rain = 0
KOD1 101550Z 31006KT 04/M02 A3039 RMK A01 T00381024  RH  064%=      5-min Rain = 0
KOD1 101551Z 31005KT 04/M03 A3039 RMK A01 T00381025  RH  063%=      5-min Rain = 0
KOD1 101552Z 31005KT 04/M02 A3039 RMK A01 T00381024  RH  064%=      5-min Rain = 0
KOD1 101553Z 31005KT 04/M02 A3039 RMK A01 T00381024  RH  064%=      5-min Rain = 0
KOD1 101554Z 32005KT 04/M03 A3039 RMK A01 T00381026  RH  063%=      5-min Rain = 0
KOD1 101555Z 33006KT 04/M02 A304 RMK A01 T00391024  RH  064%=      5-min Rain = 0
KOD1 101556Z 32006KT 04/M02 A304 RMK A01 T00391022  RH  064%=      5-min Rain = 0
KOD1 101557Z 32006KT 04/M03 A304 RMK A01 T00401026  RH  062%=      5-min Rain = 0
KOD1 101558Z 33006KT 04/M03 A304 RMK A01 T00401027  RH  062%=      5-min Rain = 0
KOD1 101559Z 33006KT 04/M03 A304 RMK A01 T00411026  RH  062%=      5-min Rain = 0
KOD1 101600Z 33006KT 04/M03 A304 RMK A01 T00421025  RH  062%=      5-min Rain = 0
KOD1 101601Z 33006KT 04/M03 A304 RMK A01 T00431026  RH  061%=      5-min Rain = 0
KOD1 101602Z 33005KT 04/M03 A304 RMK A01 T00431026  RH  061%=      5-min Rain = 0
KOD1 101603Z 32006KT 04/M02 A304 RMK A01 T00441023  RH  062%=      5-min Rain = 0
KOD1 101604Z 34006KT 05/M02 A304 RMK A01 T00451024  RH  061%=      5-min Rain = 0
KOD1 101605Z 35006KT 05/M03 A304 RMK A01 T00461026  RH  060%=      5-min Rain = 0
KOD1 101606Z 33006KT 05/M02 A304 RMK A01 T00461024  RH  061%=      5-min Rain = 0
KOD1 101607Z 32006KT 05/M02 A304 RMK A01 T00471023  RH  061%=      5-min Rain = 0
KOD1 101608Z 32006KT 05/M02 A304 RMK A01 T00481021  RH  061%=      5-min Rain = 0
KOD1 101609Z 31005KT 05/M03 A304 RMK A01 T00481026  RH  059%=      5-min Rain = 0
KOD1 101610Z 33005KT 05/M02 A304 RMK A01 T00491024  RH  059%=      5-min Rain = 0
KOD1 101611Z 34005KT 05/M03 A304 RMK A01 T00491030  RH  057%=      5-min Rain = 0
KOD1 101612Z 33007KT 05/M03 A304 RMK A01 T00491030  RH  057%=      5-min Rain = 0
KOD1 101613Z 33005KT 05/M03 A304 RMK A01 T00481031  RH  056%=      5-min Rain = 0
KOD1 101614Z 33006KT 05/M03 A304 RMK A01 T00491026  RH  058%=      5-min Rain = 0
KOD1 101615Z 31006KT 05/M03 A304 RMK A01 T00501026  RH  058%=      5-min Rain = 0
KOD1 101616Z 32005KT 05/M02 A304 RMK A01 T00521024  RH  058%=      5-min Rain = 0
KOD1 101617Z 31005KT 05/M03 A304 RMK A01 T00531026  RH  057%=      5-min Rain = 0
KOD1 101618Z 32003KT 05/M03 A304 RMK A01 T00531025  RH  057%=      5-min Rain = 0
KOD1 101619Z 34005KT 05/M03 A304 RMK A01 T00541026  RH  056%=      5-min Rain = 0
KOD1 101620Z 32006KT 05/M02 A304 RMK A01 T00541024  RH  057%=      5-min Rain = 0
KOD1 101621Z 30005KT 05/M03 A304 RMK A01 T00541025  RH  057%=      5-min Rain = 0
KOD1 101622Z 31006KT 05/M03 A304 RMK A01 T00541025  RH  057%=      5-min Rain = 0
KOD1 101623Z 31006KT 05/M03 A304 RMK A01 T00541025  RH  056%=      5-min Rain = 0
KOD1 101624Z 31005KT 06/M03 A304 RMK A01 T00551028  RH  055%=      5-min Rain = 0
KOD1 101625Z 33005KT 06/M03 A304 RMK A01 T00551027  RH  056%=      5-min Rain = 0
KOD1 101626Z 33005KT 05/M03 A304 RMK A01 T00541029  RH  055%=      5-min Rain = 0
KOD1 101627Z 34006KT 06/M03 A304 RMK A01 T00551027  RH  056%=      5-min Rain = 0
KOD1 101628Z 32005KT 06/M03 A304 RMK A01 T00551027  RH  056%=      5-min Rain = 0
KOD1 101629Z 34005KT 06/M03 A304 RMK A01 T00561028  RH  055%=      5-min Rain = 0
KOD1 101630Z 34005KT 06/M03 A304 RMK A01 T00561027  RH  055%=      5-min Rain = 0
KOD1 101631Z 33005KT 06/M03 A304 RMK A01 T00561028  RH  054%=      5-min Rain = 0
KOD1 101632Z 32005KT 06/M03 A304 RMK A01 T00571029  RH  054%=      5-min Rain = 0
KOD1 101633Z 32005KT 06/M03 A304 RMK A01 T00571025  RH  056%=      5-min Rain = 0
KOD1 101634Z 30006KT 06/M03 A304 RMK A01 T00571026  RH  055%=      5-min Rain = 0
KOD1 101635Z 29006KT 06/M03 A304 RMK A01 T00561027  RH  055%=      5-min Rain = 0
KOD1 101636Z 30006KT 06/M03 A304 RMK A01 T00571025  RH  056%=      5-min Rain = 0
KOD1 101637Z 31005KT 06/M03 A304 RMK A01 T00571026  RH  055%=      5-min Rain = 0
KOD1 101638Z 31006KT 06/M03 A304 RMK A01 T00571027  RH  055%=      5-min Rain = 0
KOD1 101639Z 30006KT 06/M03 A304 RMK A01 T00581026  RH  055%=      5-min Rain = 0
KOD1 101640Z 30006KT 06/M03 A304 RMK A01 T00581028  RH  054%=      5-min Rain = 0
KOD1 101641Z 30006KT 06/M03 A304 RMK A01 T00581028  RH  054%=      5-min Rain = 0
KOD1 101642Z 29005KT 06/M03 A304 RMK A01 T00581028  RH  054%=      5-min Rain = 0
KOD1 101643Z 31005KT 06/M03 A304 RMK A01 T00581028  RH  054%=      5-min Rain = 0
KOD1 101644Z 31006KT 06/M03 A304 RMK A01 T00581030  RH  053%=      5-min Rain = 0
KOD1 101645Z 30007KT 06/M03 A304 RMK A01 T00601027  RH  054%=      5-min Rain = 0
KOD1 101646Z 31004KT 06/M03 A304 RMK A01 T00621028  RH  053%=      5-min Rain = 0
KOD1 101647Z 31007KT 06/M03 A304 RMK A01 T00621032  RH  051%=      5-min Rain = 0
KOD1 101648Z 31006KT 06/M03 A304 RMK A01 T00631034  RH  050%=      5-min Rain = 0
KOD1 101649Z 32006KT 06/M04 A304 RMK A01 T00621035  RH  050%=      5-min Rain = 0
KOD1 101650Z 31006KT 06/M03 A304 RMK A01 T00621031  RH  051%=      5-min Rain = 0
KOD1 101651Z 29005KT 06/M03 A304 RMK A01 T00631032  RH  051%=      5-min Rain = 0
KOD1 101652Z 31004KT 06/M03 A304 RMK A01 T00641031  RH  051%=      5-min Rain = 0
KOD1 101653Z 31006KT 06/M03 A304 RMK A01 T00641034  RH  049%=      5-min Rain = 0
KOD1 101654Z 31006KT 06/M03 A3039 RMK A01 T00641033  RH  050%=      5-min Rain = 0
KOD1 101655Z 30005KT 06/M04 A3039 RMK A01 T00641037  RH  049%=      5-min Rain = 0
KOD1 101656Z 30007KT 06/M03 A3039 RMK A01 T00641034  RH  050%=      5-min Rain = 0
KOD1 101657Z 30005KT 06/M03 A3039 RMK A01 T00641033  RH  050%=      5-min Rain = 0
KOD1 101658Z 30005KT 07/M03 A3039 RMK A01 T00651031  RH  050%=      5-min Rain = 0
KOD1 101659Z 30007KT 07/M03 A3039 RMK A01 T00661034  RH  049%=      5-min Rain = 0
KOD1 101700Z 29005KT 07/M04 A3039 RMK A01 T00661035  RH  048%=      5-min Rain = 0
KOD1 101701Z 30006KT 07/M03 A3039 RMK A01 T00661034  RH  049%=      5-min Rain = 0
KOD1 101702Z 32005KT 07/M04 A3039 RMK A01 T00661035  RH  048%=      5-min Rain = 0
KOD1 101703Z 30004KT 07/M03 A3039 RMK A01 T00661031  RH  050%=      5-min Rain = 0
KOD1 101704Z 28004KT 07/M03 A3039 RMK A01 T00681030  RH  050%=      5-min Rain = 0
KOD1 101705Z 29005KT 07/M03 A3039 RMK A01 T00691033  RH  048%=      5-min Rain = 0
KOD1 101706Z 30006KT 07/M04 A3039 RMK A01 T00691036  RH  047%=      5-min Rain = 0
KOD1 101707Z 29005KT 07/M04 A3039 RMK A01 T00691035  RH  048%=      5-min Rain = 0
KOD1 101708Z 31005KT 07/M03 A3039 RMK A01 T00701031  RH  049%=      5-min Rain = 0
KOD1 101709Z 30005KT 07/M03 A3039 RMK A01 T00711032  RH  048%=      5-min Rain = 0
KOD1 101710Z 31006KT 07/M03 A3039 RMK A01 T00711029  RH  049%=      5-min Rain = 0
KOD1 101711Z 31006KT 07/M03 A3039 RMK A01 T00721032  RH  048%=      5-min Rain = 0
KOD1 101712Z 31004KT 07/M03 A3039 RMK A01 T00721031  RH  048%=      5-min Rain = 0
KOD1 101713Z 28005KT 07/M03 A3039 RMK A01 T00721032  RH  047%=      5-min Rain = 0
KOD1 101714Z 30005KT 07/M03 A3039 RMK A01 T00721028  RH  049%=      5-min Rain = 0
KOD1 101715Z 30006KT 07/M03 A3039 RMK A01 T00741028  RH  048%=      5-min Rain = 0
KOD1 101716Z 30006KT 08/M03 A3039 RMK A01 T00751030  RH  047%=      5-min Rain = 0
KOD1 101717Z 31007KT 08/M03 A3039 RMK A01 T00751031  RH  047%=      5-min Rain = 0
KOD1 101718Z 33006KT 08/M03 A3039 RMK A01 T00751032  RH  046%=      5-min Rain = 0
KOD1 101719Z 33004KT 08/M03 A3039 RMK A01 T00751030  RH  047%=      5-min Rain = 0
KOD1 101720Z 32005KT 08/M03 A3039 RMK A01 T00751033  RH  046%=      5-min Rain = 0
KOD1 101721Z 34005KT 08/M04 A3039 RMK A01 T00751035  RH  046%=      5-min Rain = 0
KOD1 101722Z 33004KT 08/M03 A3039 RMK A01 T00751031  RH  047%=      5-min Rain = 0
KOD1 101723Z 33005KT 08/M03 A3039 RMK A01 T00761032  RH  046%=      5-min Rain = 0
KOD1 101724Z 33004KT 08/M03 A3039 RMK A01 T00781032  RH  046%=      5-min Rain = 0
KOD1 101725Z 35006KT 08/M03 A3039 RMK A01 T00791032  RH  045%=      5-min Rain = 0
KOD1 101726Z 33006KT 08/M03 A3039 RMK A01 T00791033  RH  045%=      5-min Rain = 0
KOD1 101727Z 33008KT 08/M04 A3038 RMK A01 T00781035  RH  044%=      5-min Rain = 0
KOD1 101728Z 34006KT 08/M04 A3039 RMK A01 T00781036  RH  044%=      5-min Rain = 0
KOD1 101729Z 33006KT 08/M03 A3038 RMK A01 T00781034  RH  045%=      5-min Rain = 0
KOD1 101730Z 33007KT 08/M03 A3038 RMK A01 T00781034  RH  045%=      5-min Rain = 0
KOD1 101731Z 35006KT 08/M03 A3038 RMK A01 T00781034  RH  045%=      5-min Rain = 0
KOD1 101732Z 01005KT 08/M04 A3038 RMK A01 T00781037  RH  044%=      5-min Rain = 0
KOD1 101733Z 01004KT 08/M03 A3038 RMK A01 T00781032  RH  046%=      5-min Rain = 0
KOD1 101734Z 35005KT 08/M03 A3038 RMK A01 T00791033  RH  045%=      5-min Rain = 0
KOD1 101735Z 33005KT 08/M03 A3038 RMK A01 T00801031  RH  045%=      5-min Rain = 0
KOD1 101736Z 35005KT 08/M03 A3038 RMK A01 T00811033  RH  044%=      5-min Rain = 0
KOD1 101737Z 34006KT 08/M03 A3038 RMK A01 T00821032  RH  045%=      5-min Rain = 0
KOD1 101738Z 01008KT 08/M04 A3038 RMK A01 T00821035  RH  043%=      5-min Rain = 0
KOD1 101739Z 35006KT 08/M04 A3038 RMK A01 T00811036  RH  043%=      5-min Rain = 0
KOD1 101740Z 33006KT 08/M04 A3038 RMK A01 T00811038  RH  043%=      5-min Rain = 0
KOD1 101741Z 34006KT 08/M04 A3038 RMK A01 T00791036  RH  044%=      5-min Rain = 0
KOD1 101742Z 34007KT 08/M03 A3038 RMK A01 T00791034  RH  045%=      5-min Rain = 0
KOD1 101743Z 34006KT 08/M03 A3038 RMK A01 T00811034  RH  044%=      5-min Rain = 0
KOD1 101744Z 34004KT 08/M04 A3038 RMK A01 T00821035  RH  044%=      5-min Rain = 0
KOD1 101745Z 34008KT 08/M03 A3038 RMK A01 T00821033  RH  044%=      5-min Rain = 0
KOD1 101746Z 35007KT 08/M04 A3038 RMK A01 T00831036  RH  043%=      5-min Rain = 0
KOD1 101747Z 34006KT 08/M04 A3038 RMK A01 T00821036  RH  043%=      5-min Rain = 0
KOD1 101748Z 34005KT 08/M04 A3038 RMK A01 T00821035  RH  043%=      5-min Rain = 0
KOD1 101749Z 34004KT 08/M03 A3038 RMK A01 T00821034  RH  044%=      5-min Rain = 0
KOD1 101750Z 33004KT 08/M03 A3037 RMK A01 T00821034  RH  044%=      5-min Rain = 0
KOD1 101751Z 35005KT 08/M03 A3037 RMK A01 T00831034  RH  043%=      5-min Rain = 0
KOD1 101752Z 34005KT 08/M03 A3037 RMK A01 T00841031  RH  044%=      5-min Rain = 0
KOD1 101753Z 33005KT 09/M04 A3037 RMK A01 T00851035  RH  042%=      5-min Rain = 0
KOD1 101754Z 35005KT 09/M04 A3037 RMK A01 T00851035  RH  043%=      5-min Rain = 0
KOD1 101755Z 01007KT 09/M03 A3037 RMK A01 T00861034  RH  043%=      5-min Rain = 0
KOD1 101756Z 01007KT 09/M04 A3037 RMK A01 T00851037  RH  042%=      5-min Rain = 0
KOD1 101757Z 01005KT 08/M04 A3037 RMK A01 T00841037  RH  042%=      5-min Rain = 0
KOD1 101758Z 36005KT 08/M03 A3037 RMK A01 T00841033  RH  044%=      5-min Rain = 0
KOD1 101759Z 34005KT 08/M04 A3037 RMK A01 T00841036  RH  043%=      5-min Rain = 0
KOD1 101800Z 34005KT 09/M04 A3037 RMK A01 T00851036  RH  042%=      5-min Rain = 0
KOD1 101801Z 01006KT 09/M03 A3037 RMK A01 T00851033  RH  043%=      5-min Rain = 0
KOD1 101802Z 01007KT 09/M03 A3037 RMK A01 T00851033  RH  043%=      5-min Rain = 0
KOD1 101803Z 02006KT 09/M04 A3037 RMK A01 T00851035  RH  043%=      5-min Rain = 0
KOD1 101804Z 03005KT 09/M03 A3037 RMK A01 T00851030  RH  044%=      5-min Rain = 0
KOD1 101805Z 02006KT 09/M04 A3036 RMK A01 T00861035  RH  042%=      5-min Rain = 0
KOD1 101806Z 02006KT 09/M03 A3036 RMK A01 T00861032  RH  043%=      5-min Rain = 0
KOD1 101807Z 02006KT 09/M03 A3036 RMK A01 T00871032  RH  043%=      5-min Rain = 0
KOD1 101808Z 02006KT 09/M03 A3036 RMK A01 T00881031  RH  043%=      5-min Rain = 0
KOD1 101809Z 03006KT 09/M03 A3036 RMK A01 T00891032  RH  043%=      5-min Rain = 0
KOD1 101810Z 03006KT 09/M03 A3036 RMK A01 T00881034  RH  042%=      5-min Rain = 0
KOD1 101811Z 03006KT 09/M03 A3036 RMK A01 T00881033  RH  043%=      5-min Rain = 0
KOD1 101812Z 01007KT 09/M03 A3036 RMK A01 T00881033  RH  042%=      5-min Rain = 0
KOD1 101813Z 02006KT 09/M03 A3036 RMK A01 T00881033  RH  042%=      5-min Rain = 0
KOD1 101814Z 01005KT 09/M04 A3036 RMK A01 T00881035  RH  042%=      5-min Rain = 0
KOD1 101815Z 03003KT 09/M03 A3036 RMK A01 T00881033  RH  042%=      5-min Rain = 0
KOD1 101816Z 00006KT 09/M03 A3036 RMK A01 T00891034  RH  042%=      5-min Rain = 0
KOD1 101817Z 36006KT 09/M04 A3036 RMK A01 T00891036  RH  041%=      5-min Rain = 0
KOD1 101818Z 01006KT 09/M04 A3036 RMK A01 T00891035  RH  042%=      5-min Rain = 0
KOD1 101819Z 00005KT 09/M04 A3036 RMK A01 T00891035  RH  042%=      5-min Rain = 0
KOD1 101820Z 02006KT 09/M03 A3036 RMK A01 T00901033  RH  042%=      5-min Rain = 0
KOD1 101821Z 01006KT 09/M03 A3036 RMK A01 T00901033  RH  042%=      5-min Rain = 0
KOD1 101822Z 00004KT 09/M03 A3036 RMK A01 T00901033  RH  042%=      5-min Rain = 0
KOD1 101823Z 01004KT 09/M04 A3036 RMK A01 T00911035  RH  041%=      5-min Rain = 0
KOD1 101824Z 03005KT 09/M03 A3036 RMK A01 T00911030  RH  042%=      5-min Rain = 0
KOD1 101825Z 03004KT 09/M03 A3035 RMK A01 T00921031  RH  042%=      5-min Rain = 0
KOD1 101826Z 01006KT 09/M03 A3035 RMK A01 T00931028  RH  042%=      5-min Rain = 0
KOD1 101827Z 01007KT 10/M03 A3035 RMK A01 T00951029  RH  042%=      5-min Rain = 0
KOD1 101828Z 02006KT 10/M03 A3035 RMK A01 T00951032  RH  041%=      5-min Rain = 0
KOD1 101829Z 02005KT 09/M03 A3035 RMK A01 T00941034  RH  040%=      5-min Rain = 0
KOD1 101830Z 35007KT 09/M03 A3035 RMK A01 T00941034  RH  040%=      5-min Rain = 0
KOD1 101831Z 35008KT 09/M03 A3035 RMK A01 T00941030  RH  042%=      5-min Rain = 0
KOD1 101832Z 01007KT 10/M03 A3035 RMK A01 T00961028  RH  042%=      5-min Rain = 0
KOD1 101833Z 02006KT 10/M03 A3035 RMK A01 T00961034  RH  040%=      5-min Rain = 0
KOD1 101834Z 01006KT 10/M04 A3035 RMK A01 T00951035  RH  040%=      5-min Rain = 0
KOD1 101835Z 34004KT 10/M04 A3035 RMK A01 T00951035  RH  040%=      5-min Rain = 0
KOD1 101836Z 01005KT 10/M03 A3035 RMK A01 T00951034  RH  040%=      5-min Rain = 0
KOD1 101837Z 02006KT 10/M03 A3035 RMK A01 T00951034  RH  040%=      5-min Rain = 0
KOD1 101838Z 02006KT 10/M04 A3035 RMK A01 T00961037  RH  039%=      5-min Rain = 0
KOD1 101839Z 02007KT 10/M03 A3035 RMK A01 T00951032  RH  041%=      5-min Rain = 0
KOD1 101840Z 02006KT 10/M03 A3035 RMK A01 T00981028  RH  041%=      5-min Rain = 0
KOD1 101841Z 01007KT 10/M03 A3035 RMK A01 T00991031  RH  040%=      5-min Rain = 0
KOD1 101842Z 02007KT 10/M04 A3034 RMK A01 T00991036  RH  039%=      5-min Rain = 0
KOD1 101843Z 01006KT 10/M03 A3034 RMK A01 T00981033  RH  040%=      5-min Rain = 0
KOD1 101844Z 01005KT 10/M03 A3034 RMK A01 T00971032  RH  040%=      5-min Rain = 0
KOD1 101845Z 03004KT 10/M03 A3034 RMK A01 T00971030  RH  041%=      5-min Rain = 0
KOD1 101846Z 01004KT 10/M03 A3034 RMK A01 T00981027  RH  041%=      5-min Rain = 0
KOD1 101847Z 35005KT 10/M03 A3034 RMK A01 T01001033  RH  039%=      5-min Rain = 0
KOD1 101848Z 01006KT 10/M03 A3034 RMK A01 T01001030  RH  040%=      5-min Rain = 0
KOD1 101849Z 02004KT 10/M03 A3034 RMK A01 T00991034  RH  039%=      5-min Rain = 0
KOD1 101850Z 01007KT 10/M03 A3034 RMK A01 T00991032  RH  040%=      5-min Rain = 0
KOD1 101851Z 01006KT 10/M03 A3034 RMK A01 T00991034  RH  039%=      5-min Rain = 0
KOD1 101852Z 35005KT 10/M03 A3034 RMK A01 T00981032  RH  040%=      5-min Rain = 0
KOD1 101853Z 01005KT 10/M03 A3034 RMK A01 T00991032  RH  040%=      5-min Rain = 0
KOD1 101854Z 01004KT 10/M04 A3034 RMK A01 T00981035  RH  039%=      5-min Rain = 0
KOD1 101855Z 04005KT 10/M03 A3034 RMK A01 T00991031  RH  040%=      5-min Rain = 0
KOD1 101856Z 05004KT 10/M03 A3034 RMK A01 T01011030  RH  040%=      5-min Rain = 0
KOD1 101857Z 36006KT 10/M03 A3034 RMK A01 T01021027  RH  040%=      5-min Rain = 0
KOD1 101858Z 36006KT 10/M03 A3034 RMK A01 T01031031  RH  039%=      5-min Rain = 0
KOD1 101859Z 01005KT 10/M03 A3034 RMK A01 T01021031  RH  039%=      5-min Rain = 0
KOD1 101900Z 02003KT 10/M03 A3034 RMK A01 T01011032  RH  039%=      5-min Rain = 0
KOD1 101901Z 02003KT 10/M03 A3034 RMK A01 T01011031  RH  040%=      5-min Rain = 0
KOD1 101902Z 00005KT 10/M03 A3034 RMK A01 T01021028  RH  040%=      5-min Rain = 0
KOD1 101903Z 02005KT 10/M03 A3034 RMK A01 T01031029  RH  039%=      5-min Rain = 0
KOD1 101904Z 03006KT 10/M03 A3034 RMK A01 T01041032  RH  038%=      5-min Rain = 0
KOD1 101905Z 04006KT 10/M03 A3033 RMK A01 T01041031  RH  039%=      5-min Rain = 0
KOD1 101906Z 05006KT 11/M03 A3033 RMK A01 T01061032  RH  038%=      5-min Rain = 0
KOD1 101907Z 06005KT 11/M04 A3033 RMK A01 T01051037  RH  037%=      5-min Rain = 0
KOD1 101908Z 03006KT 11/M03 A3033 RMK A01 T01051032  RH  038%=      5-min Rain = 0
KOD1 101909Z 04007KT 11/M03 A3033 RMK A01 T01061030  RH  038%=      5-min Rain = 0
KOD1 101910Z 06007KT 11/M03 A3033 RMK A01 T01051033  RH  038%=      5-min Rain = 0
KOD1 101911Z 05005KT 11/M04 A3033 RMK A01 T01051036  RH  037%=      5-min Rain = 0
KOD1 101912Z 04006KT 10/M04 A3033 RMK A01 T01041037  RH  037%=      5-min Rain = 0
KOD1 101913Z 04005KT 11/M03 A3033 RMK A01 T01051033  RH  038%=      5-min Rain = 0
KOD1 101914Z 05004KT 11/M04 A3033 RMK A01 T01061037  RH  036%=      5-min Rain = 0
KOD1 101915Z 05006KT 11/M04 A3033 RMK A01 T01051038  RH  036%=      5-min Rain = 0
KOD1 101916Z 06005KT 11/M04 A3033 RMK A01 T01051042  RH  035%=      5-min Rain = 0
KOD1 101917Z 05004KT 11/M04 A3033 RMK A01 T01051038  RH  036%=      5-min Rain = 0
KOD1 101918Z 05006KT 11/M04 A3033 RMK A01 T01061035  RH  037%=      5-min Rain = 0
KOD1 101919Z 04004KT 11/M04 A3033 RMK A01 T01071035  RH  037%=      5-min Rain = 0
KOD1 101920Z 05005KT 11/M03 A3033 RMK A01 T01081032  RH  037%=      5-min Rain = 0
KOD1 101921Z 04005KT 11/M03 A3033 RMK A01 T01091032  RH  037%=      5-min Rain = 0
KOD1 101922Z 01005KT 11/M03 A3033 RMK A01 T01101029  RH  038%=      5-min Rain = 0
KOD1 101923Z 01004KT 11/M04 A3033 RMK A01 T01121035  RH  035%=      5-min Rain = 0
KOD1 101924Z 36005KT 11/M04 A3033 RMK A01 T01121037  RH  035%=      5-min Rain = 0
KOD1 101925Z 01005KT 11/M03 A3033 RMK A01 T01121033  RH  036%=      5-min Rain = 0
KOD1 101926Z 04006KT 11/M03 A3033 RMK A01 T01121033  RH  036%=      5-min Rain = 0
KOD1 101927Z 05005KT 11/M04 A3033 RMK A01 T01111039  RH  035%=      5-min Rain = 0
KOD1 101928Z 04003KT 11/M04 A3033 RMK A01 T01091037  RH  036%=      5-min Rain = 0
KOD1 101929Z 07002KT 11/M03 A3033 RMK A01 T01101033  RH  037%=      5-min Rain = 0
KOD1 101930Z 06001KT 11/M03 A3033 RMK A01 T01111032  RH  037%=      5-min Rain = 0
KOD1 101931Z 01003KT 11/M03 A3032 RMK A01 T01121032  RH  036%=      5-min Rain = 0
KOD1 101932Z 03003KT 11/M03 A3032 RMK A01 T01131030  RH  037%=      5-min Rain = 0
KOD1 101933Z 04004KT 11/M03 A3032 RMK A01 T01141032  RH  036%=      5-min Rain = 0
KOD1 101934Z 06005KT 11/M04 A3032 RMK A01 T01141037  RH  035%=      5-min Rain = 0
KOD1 101935Z 04006KT 11/M04 A3032 RMK A01 T01131039  RH  034%=      5-min Rain = 0
KOD1 101936Z 05003KT 11/M04 A3032 RMK A01 T01111042  RH  034%=      5-min Rain = 0
KOD1 101937Z 02004KT 11/M04 A3032 RMK A01 T01111037  RH  035%=      5-min Rain = 0
KOD1 101938Z 04005KT 11/M03 A3032 RMK A01 T01121034  RH  036%=      5-min Rain = 0
KOD1 101939Z 03005KT 11/M03 A3032 RMK A01 T01121034  RH  036%=      5-min Rain = 0
KOD1 101940Z 03007KT 11/M04 A3032 RMK A01 T01131037  RH  035%=      5-min Rain = 0
KOD1 101941Z 03006KT 11/M04 A3032 RMK A01 T01131042  RH  033%=      5-min Rain = 0
KOD1 101942Z 03003KT 11/M04 A3032 RMK A01 T01121044  RH  033%=      5-min Rain = 0
KOD1 101943Z 02006KT 11/M04 A3032 RMK A01 T01121040  RH  034%=      5-min Rain = 0
KOD1 101944Z 02003KT 11/M04 A3032 RMK A01 T01131043  RH  033%=      5-min Rain = 0
KOD1 101945Z 02004KT 11/M04 A3032 RMK A01 T01121043  RH  033%=      5-min Rain = 0
KOD1 101946Z 02007KT 11/M04 A3032 RMK A01 T01131041  RH  034%=      5-min Rain = 0
KOD1 101947Z 01007KT 12/M04 A3032 RMK A01 T01151038  RH  034%=      5-min Rain = 0
KOD1 101948Z 02005KT 12/M04 A3031 RMK A01 T01161039  RH  033%=      5-min Rain = 0
KOD1 101949Z 02006KT 12/M04 A3031 RMK A01 T01171040  RH  033%=      5-min Rain = 0
KOD1 101950Z 04008KT 12/M04 A3031 RMK A01 T01181043  RH  032%=      5-min Rain = 0
KOD1 101951Z 03007KT 12/M04 A3031 RMK A01 T01161041  RH  033%=      5-min Rain = 0
KOD1 101952Z 04006KT 12/M04 A3031 RMK A01 T01161044  RH  032%=      5-min Rain = 0
KOD1 101953Z 06005KT 11/M05 A3031 RMK A01 T01141046  RH  032%=      5-min Rain = 0
KOD1 101954Z 05004KT 11/M04 A3031 RMK A01 T01141043  RH  033%=      5-min Rain = 0
KOD1 101955Z 05006KT 12/M04 A3031 RMK A01 T01151040  RH  033%=      5-min Rain = 0
KOD1 101956Z 05008KT 12/M04 A3031 RMK A01 T01151043  RH  033%=      5-min Rain = 0
KOD1 101957Z 05006KT 12/M05 A3031 RMK A01 T01151046  RH  032%=      5-min Rain = 0
KOD1 101958Z 04004KT 11/M04 A3031 RMK A01 T01141043  RH  033%=      5-min Rain = 0
KOD1 101959Z 05006KT 12/M04 A3031 RMK A01 T01151040  RH  033%=      5-min Rain = 0
KOD1 102000Z 04006KT 12/M04 A3031 RMK A01 T01151042  RH  033%=      5-min Rain = 0
KOD1 102001Z 03005KT 12/M04 A3031 RMK A01 T01161041  RH  033%=      5-min Rain = 0
KOD1 102002Z 03004KT 12/M04 A3031 RMK A01 T01161044  RH  032%=      5-min Rain = 0
KOD1 102003Z 04004KT 12/M05 A3031 RMK A01 T01151045  RH  032%=      5-min Rain = 0
KOD1 102004Z 05003KT 12/M05 A3031 RMK A01 T01151048  RH  032%=      5-min Rain = 0
KOD1 102005Z 03004KT 11/M05 A3031 RMK A01 T01141047  RH  032%=      5-min Rain = 0
KOD1 102006Z 02004KT 12/M05 A3031 RMK A01 T01151046  RH  032%=      5-min Rain = 0
KOD1 102007Z 04004KT 12/M05 A3031 RMK A01 T01161047  RH  032%=      5-min Rain = 0
KOD1 102008Z 04004KT 12/M04 A3031 RMK A01 T01171042  RH  033%=      5-min Rain = 0
KOD1 102009Z 05003KT 12/M04 A3031 RMK A01 T01181044  RH  032%=      5-min Rain = 0
KOD1 102010Z 04002KT 12/M05 A3031 RMK A01 T01171047  RH  031%=      5-min Rain = 0
KOD1 102011Z 04003KT 12/M05 A3031 RMK A01 T01171045  RH  032%=      5-min Rain = 0
KOD1 102012Z 04004KT 12/M05 A3031 RMK A01 T01171046  RH  032%=      5-min Rain = 0
KOD1 102013Z 03003KT 12/M05 A3031 RMK A01 T01171049  RH  031%=      5-min Rain = 0
KOD1 102014Z 01002KT 12/M05 A3031 RMK A01 T01161049  RH  031%=      5-min Rain = 0
KOD1 102015Z 34001KT 12/M05 A3031 RMK A01 T01171050  RH  031%=      5-min Rain = 0
KOD1 102016Z 33001KT 12/M05 A3031 RMK A01 T01181047  RH  031%=      5-min Rain = 0
KOD1 102017Z 05000KT 12/M04 A3031 RMK A01 T01201043  RH  032%=      5-min Rain = 0
KOD1 102018Z 05001KT 12/M04 A3031 RMK A01 T01211044  RH  031%=      5-min Rain = 0
KOD1 102019Z 04004KT 12/M04 A3031 RMK A01 T01221042  RH  032%=      5-min Rain = 0
KOD1 102020Z 03004KT 12/M05 A3031 RMK A01 T01221045  RH  031%=      5-min Rain = 0
KOD1 102021Z 02004KT 12/M04 A3031 RMK A01 T01211044  RH  031%=      5-min Rain = 0
KOD1 102022Z 03002KT 12/M04 A3031 RMK A01 T01201044  RH  032%=      5-min Rain = 0
KOD1 102023Z 02002KT 12/M04 A3031 RMK A01 T01201043  RH  032%=      5-min Rain = 0
KOD1 102024Z 00003KT 12/M05 A3031 RMK A01 T01201045  RH  031%=      5-min Rain = 0
KOD1 102025Z 36003KT 12/M04 A3031 RMK A01 T01201044  RH  031%=      5-min Rain = 0
KOD1 102026Z 01004KT 12/M05 A3031 RMK A01 T01201046  RH  031%=      5-min Rain = 0
KOD1 102027Z 36004KT 12/M05 A3031 RMK A01 T01191045  RH  031%=      5-min Rain = 0
KOD1 102028Z 34003KT 12/M05 A3031 RMK A01 T01191047  RH  031%=      5-min Rain = 0
KOD1 102029Z 36002KT 12/M05 A3031 RMK A01 T01191045  RH  031%=      5-min Rain = 0
KOD1 102030Z 01001KT 12/M05 A3031 RMK A01 T01191045  RH  031%=      5-min Rain = 0
KOD1 102031Z 05001KT 12/M04 A3031 RMK A01 T01211042  RH  032%=      5-min Rain = 0
KOD1 102032Z 09002KT 12/M05 A3031 RMK A01 T01221047  RH  030%=      5-min Rain = 0
KOD1 102033Z 12002KT 12/M05 A3031 RMK A01 T01211049  RH  030%=      5-min Rain = 0
KOD1 102034Z 12001KT 12/M05 A3031 RMK A01 T01211047  RH  031%=      5-min Rain = 0
KOD1 102035Z 17001KT 12/M04 A3031 RMK A01 T01231044  RH  031%=      5-min Rain = 0
KOD1 102036Z 00002KT 13/M04 A3031 RMK A01 T01251044  RH  030%=      5-min Rain = 0
KOD1 102037Z 34002KT 13/M05 A3031 RMK A01 T01251048  RH  030%=      5-min Rain = 0
KOD1 102038Z 02002KT 12/M05 A3031 RMK A01 T01241047  RH  030%=      5-min Rain = 0
KOD1 102039Z 06004KT 12/M04 A3031 RMK A01 T01241044  RH  031%=      5-min Rain = 0
KOD1 102040Z 06003KT 12/M05 A3031 RMK A01 T01221047  RH  030%=      5-min Rain = 0
KOD1 102041Z 07001KT 12/M05 A3031 RMK A01 T01221045  RH  031%=      5-min Rain = 0
KOD1 102042Z 18000KT 12/M04 A3031 RMK A01 T01231042  RH  031%=      5-min Rain = 0
KOD1 102043Z 18000KT 13/M04 A3031 RMK A01 T01251041  RH  031%=      5-min Rain = 0
KOD1 102044Z 04000KT 13/M04 A3031 RMK A01 T01271040  RH  031%=      5-min Rain = 0
KOD1 102045Z 02003KT 13/M04 A3031 RMK A01 T01281044  RH  030%=      5-min Rain = 0
KOD1 102046Z 04003KT 13/M05 A3031 RMK A01 T01271045  RH  030%=      5-min Rain = 0
KOD1 102047Z 05003KT 13/M05 A3031 RMK A01 T01251046  RH  030%=      5-min Rain = 0
KOD1 102048Z 04001KT 12/M05 A3031 RMK A01 T01241046  RH  030%=      5-min Rain = 0
KOD1 102049Z 36001KT 12/M05 A3031 RMK A01 T01241045  RH  031%=      5-min Rain = 0
KOD1 102050Z 01002KT 12/M05 A3031 RMK A01 T01241046  RH  030%=      5-min Rain = 0
KOD1 102051Z 35001KT 12/M05 A3031 RMK A01 T01231045  RH  031%=      5-min Rain = 0
KOD1 102052Z 33002KT 12/M04 A3031 RMK A01 T01241043  RH  031%=      5-min Rain = 0
KOD1 102053Z 33001KT 12/M04 A3031 RMK A01 T01241043  RH  031%=      5-min Rain = 0
KOD1 102054Z 31002KT 13/M05 A3031 RMK A01 T01251045  RH  030%=      5-min Rain = 0
KOD1 102055Z 35002KT 13/M04 A3031 RMK A01 T01251044  RH  030%=      5-min Rain = 0
KOD1 102056Z 07001KT 13/M05 A3031 RMK A01 T01251045  RH  030%=      5-min Rain = 0
KOD1 102057Z 09002KT 12/M05 A3031 RMK A01 T01241046  RH  030%=      5-min Rain = 0
KOD1 102058Z 12001KT 12/M04 A3031 RMK A01 T01241044  RH  031%=      5-min Rain = 0
KOD1 102059Z 16002KT 13/M04 A3031 RMK A01 T01251044  RH  030%=      5-min Rain = 0
KOD1 102100Z 05002KT 13/M04 A3031 RMK A01 T01261043  RH  031%=      5-min Rain = 0
KOD1 102101Z 06004KT 13/M05 A3031 RMK A01 T01251045  RH  030%=      5-min Rain = 0
KOD1 102102Z 06002KT 12/M05 A3031 RMK A01 T01231047  RH  030%=      5-min Rain = 0
KOD1 102103Z 07002KT 12/M04 A3031 RMK A01 T01231044  RH  031%=      5-min Rain = 0
KOD1 102104Z 04003KT 12/M05 A3031 RMK A01 T01231045  RH  031%=      5-min Rain = 0
KOD1 102105Z 01002KT 12/M05 A3031 RMK A01 T01231045  RH  031%=      5-min Rain = 0
KOD1 102106Z 01002KT 12/M05 A3031 RMK A01 T01231046  RH  030%=      5-min Rain = 0
KOD1 102107Z 04001KT 12/M04 A3031 RMK A01 T01231044  RH  031%=      5-min Rain = 0
KOD1 102108Z 07001KT 12/M04 A3031 RMK A01 T01241044  RH  031%=      5-min Rain = 0
KOD1 102109Z 04004KT 12/M05 A3031 RMK A01 T01241045  RH  030%=      5-min Rain = 0
KOD1 102110Z 03003KT 12/M05 A3031 RMK A01 T01231047  RH  030%=      5-min Rain = 0
KOD1 102111Z 04003KT 12/M05 A303 RMK A01 T01231047  RH  030%=      5-min Rain = 0
KOD1 102112Z 04001KT 12/M05 A303 RMK A01 T01231045  RH  031%=      5-min Rain = 0
KOD1 102113Z 08003KT 12/M04 A303 RMK A01 T01231044  RH  031%=      5-min Rain = 0
KOD1 102114Z 02002KT 12/M04 A3031 RMK A01 T01241044  RH  031%=      5-min Rain = 0
KOD1 102115Z 08001KT 13/M04 A303 RMK A01 T01251043  RH  031%=      5-min Rain = 0
KOD1 102116Z 09001KT 13/M04 A303 RMK A01 T01261043  RH  031%=      5-min Rain = 0
KOD1 102117Z 10002KT 13/M04 A303 RMK A01 T01261044  RH  030%=      5-min Rain = 0
KOD1 102118Z 08004KT 13/M04 A303 RMK A01 T01261044  RH  030%=      5-min Rain = 0
KOD1 102119Z 08003KT 13/M05 A303 RMK A01 T01261045  RH  030%=      5-min Rain = 0
KOD1 102120Z 11002KT 13/M04 A303 RMK A01 T01251044  RH  030%=      5-min Rain = 0
KOD1 102121Z 15004KT 13/M04 A303 RMK A01 T01261043  RH  030%=      5-min Rain = 0
KOD1 102122Z 14004KT 13/M04 A303 RMK A01 T01261044  RH  030%=      5-min Rain = 0
KOD1 102123Z 16004KT 13/M04 A303 RMK A01 T01251043  RH  031%=      5-min Rain = 0
KOD1 102124Z 17004KT 12/M04 A303 RMK A01 T01241041  RH  031%=      5-min Rain = 0
KOD1 102125Z 17003KT 12/M04 A303 RMK A01 T01241040  RH  032%=      5-min Rain = 0
KOD1 102126Z 14004KT 12/M04 A303 RMK A01 T01241042  RH  031%=      5-min Rain = 0
KOD1 102127Z 13003KT 12/M04 A303 RMK A01 T01241041  RH  031%=      5-min Rain = 0
KOD1 102128Z 12002KT 12/M04 A303 RMK A01 T01241042  RH  031%=      5-min Rain = 0
KOD1 102129Z 13002KT 13/M04 A303 RMK A01 T01251043  RH  031%=      5-min Rain = 0
KOD1 102130Z 13003KT 13/M04 A303 RMK A01 T01251041  RH  031%=      5-min Rain = 0
KOD1 102131Z 13005KT 13/M04 A303 RMK A01 T01251043  RH  031%=      5-min Rain = 0
KOD1 102132Z 13004KT 13/M04 A303 RMK A01 T01251043  RH  031%=      5-min Rain = 0
KOD1 102133Z 15003KT 12/M04 A303 RMK A01 T01241043  RH  031%=      5-min Rain = 0
KOD1 102134Z 15003KT 12/M04 A303 RMK A01 T01241042  RH  031%=      5-min Rain = 0
KOD1 102135Z 15004KT 12/M04 A303 RMK A01 T01241043  RH  031%=      5-min Rain = 0
KOD1 102136Z 14003KT 13/M04 A303 RMK A01 T01251042  RH  031%=      5-min Rain = 0
KOD1 102137Z 10004KT 13/M04 A303 RMK A01 T01251041  RH  031%=      5-min Rain = 0
KOD1 102138Z 11004KT 13/M04 A303 RMK A01 T01251042  RH  031%=      5-min Rain = 0
KOD1 102139Z 15004KT 12/M04 A303 RMK A01 T01241043  RH  031%=      5-min Rain = 0
KOD1 102140Z 15003KT 12/M04 A303 RMK A01 T01241043  RH  031%=      5-min Rain = 0
KOD1 102141Z 16002KT 12/M04 A303 RMK A01 T01241043  RH  031%=      5-min Rain = 0
KOD1 102142Z 17002KT 12/M05 A303 RMK A01 T01241046  RH  030%=      5-min Rain = 0
KOD1 102143Z 13002KT 12/M05 A303 RMK A01 T01241045  RH  030%=      5-min Rain = 0
KOD1 102144Z 13003KT 12/M04 A303 RMK A01 T01241042  RH  031%=      5-min Rain = 0
KOD1 102145Z 12002KT 13/M04 A303 RMK A01 T01251044  RH  030%=      5-min Rain = 0
KOD1 102146Z 10005KT 12/M05 A303 RMK A01 T01241046  RH  030%=      5-min Rain = 0
KOD1 102147Z 10004KT 12/M04 A303 RMK A01 T01231044  RH  031%=      5-min Rain = 0
KOD1 102148Z 11002KT 12/M05 A303 RMK A01 T01221048  RH  030%=      5-min Rain = 0
KOD1 102149Z 10003KT 12/M04 A303 RMK A01 T01231044  RH  031%=      5-min Rain = 0
KOD1 102150Z 13003KT 12/M05 A303 RMK A01 T01231045  RH  031%=      5-min Rain = 0
KOD1 102151Z 14002KT 12/M05 A303 RMK A01 T01231045  RH  031%=      5-min Rain = 0
KOD1 102152Z 15002KT 12/M05 A303 RMK A01 T01241047  RH  030%=      5-min Rain = 0
KOD1 102153Z 14002KT 12/M05 A303 RMK A01 T01241046  RH  030%=      5-min Rain = 0
KOD1 102154Z 11003KT 13/M05 A303 RMK A01 T01251045  RH  030%=      5-min Rain = 0
KOD1 102155Z 10003KT 13/M05 A303 RMK A01 T01251047  RH  030%=      5-min Rain = 0
KOD1 102156Z 12002KT 12/M05 A303 RMK A01 T01241045  RH  030%=      5-min Rain = 0
KOD1 102157Z 13003KT 13/M05 A303 RMK A01 T01251046  RH  030%=      5-min Rain = 0
KOD1 102158Z 13002KT 13/M05 A303 RMK A01 T01251045  RH  030%=      5-min Rain = 0
KOD1 102159Z 15002KT 13/M04 A303 RMK A01 T01251042  RH  031%=      5-min Rain = 0
KOD1 102200Z 09002KT 13/M04 A303 RMK A01 T01261041  RH  031%=      5-min Rain = 0
KOD1 102201Z 07003KT 13/M05 A303 RMK A01 T01261045  RH  030%=      5-min Rain = 0
KOD1 102202Z 08003KT 13/M05 A303 RMK A01 T01251048  RH  030%=      5-min Rain = 0
KOD1 102203Z 10004KT 12/M05 A303 RMK A01 T01241048  RH  030%=      5-min Rain = 0
KOD1 102204Z 10003KT 12/M05 A303 RMK A01 T01231051  RH  029%=      5-min Rain = 0
KOD1 102205Z 10002KT 12/M05 A303 RMK A01 T01221051  RH  029%=      5-min Rain = 0
KOD1 102206Z 09002KT 12/M05 A303 RMK A01 T01221050  RH  030%=      5-min Rain = 0
KOD1 102207Z 09002KT 12/M05 A303 RMK A01 T01221052  RH  029%=      5-min Rain = 0
KOD1 102208Z 09003KT 12/M05 A303 RMK A01 T01221053  RH  029%=      5-min Rain = 0
KOD1 102209Z 10002KT 12/M05 A303 RMK A01 T01211054  RH  029%=      5-min Rain = 0
KOD1 102210Z 10002KT 12/M05 A303 RMK A01 T01211053  RH  029%=      5-min Rain = 0
KOD1 102211Z 10002KT 12/M05 A303 RMK A01 T01211054  RH  029%=      5-min Rain = 0
KOD1 102212Z 11002KT 12/M05 A303 RMK A01 T01211054  RH  029%=      5-min Rain = 0
KOD1 102213Z 11003KT 12/M05 A303 RMK A01 T01211053  RH  029%=      5-min Rain = 0
KOD1 102214Z 13002KT 12/M05 A303 RMK A01 T01211051  RH  030%=      5-min Rain = 0
KOD1 102215Z 14002KT 12/M05 A303 RMK A01 T01221050  RH  030%=      5-min Rain = 0
KOD1 102216Z 13002KT 12/M05 A303 RMK A01 T01231050  RH  029%=      5-min Rain = 0
KOD1 102217Z 11002KT 12/M05 A303 RMK A01 T01231051  RH  029%=      5-min Rain = 0
KOD1 102218Z 09002KT 12/M05 A303 RMK A01 T01231051  RH  029%=      5-min Rain = 0
KOD1 102219Z 10002KT 12/M05 A303 RMK A01 T01221050  RH  030%=      5-min Rain = 0
KOD1 102220Z 10003KT 12/M05 A303 RMK A01 T01221049  RH  030%=      5-min Rain = 0
KOD1 102221Z 09004KT 12/M05 A303 RMK A01 T01211045  RH  031%=      5-min Rain = 0
KOD1 102222Z 09004KT 12/M04 A303 RMK A01 T01211044  RH  031%=      5-min Rain = 0
KOD1 102223Z 09004KT 12/M04 A303 RMK A01 T01201042  RH  032%=      5-min Rain = 0
KOD1 102224Z 09004KT 12/M04 A303 RMK A01 T01201042  RH  032%=      5-min Rain = 0
KOD1 102225Z 09004KT 12/M04 A303 RMK A01 T01201041  RH  032%=      5-min Rain = 0
KOD1 102226Z 10004KT 12/M04 A303 RMK A01 T01191040  RH  033%=      5-min Rain = 0
KOD1 102227Z 10003KT 12/M04 A303 RMK A01 T01191040  RH  033%=      5-min Rain = 0
KOD1 102228Z 10004KT 12/M04 A303 RMK A01 T01191040  RH  033%=      5-min Rain = 0
KOD1 102229Z 10004KT 12/M04 A303 RMK A01 T01191039  RH  033%=      5-min Rain = 0
KOD1 102230Z 10004KT 12/M04 A303 RMK A01 T01181040  RH  033%=      5-min Rain = 0
KOD1 102231Z 10004KT 12/M04 A303 RMK A01 T01181040  RH  033%=      5-min Rain = 0
KOD1 102232Z 11004KT 12/M04 A303 RMK A01 T01181039  RH  033%=      5-min Rain = 0
KOD1 102233Z 10004KT 12/M04 A303 RMK A01 T01191037  RH  034%=      5-min Rain = 0
KOD1 102234Z 09004KT 12/M04 A303 RMK A01 T01181040  RH  033%=      5-min Rain = 0
KOD1 102235Z 10004KT 12/M04 A303 RMK A01 T01181039  RH  033%=      5-min Rain = 0
KOD1 102236Z 09004KT 12/M04 A303 RMK A01 T01181039  RH  033%=      5-min Rain = 0
KOD1 102237Z 10003KT 12/M04 A303 RMK A01 T01181037  RH  034%=      5-min Rain = 0
KOD1 102238Z 12003KT 12/M04 A303 RMK A01 T01171038  RH  034%=      5-min Rain = 0
KOD1 102239Z 11003KT 12/M03 A303 RMK A01 T01171034  RH  035%=      5-min Rain = 0
KOD1 102240Z 11003KT 12/M03 A303 RMK A01 T01171033  RH  035%=      5-min Rain = 0
KOD1 102241Z 11003KT 12/M03 A303 RMK A01 T01171033  RH  035%=      5-min Rain = 0
KOD1 102242Z 11003KT 12/M04 A303 RMK A01 T01171035  RH  034%=      5-min Rain = 0
KOD1 102243Z 13002KT 12/M03 A303 RMK A01 T01161034  RH  035%=      5-min Rain = 0
KOD1 102244Z 12003KT 12/M03 A303 RMK A01 T01171032  RH  035%=      5-min Rain = 0
KOD1 102245Z 12003KT 12/M03 A303 RMK A01 T01171033  RH  035%=      5-min Rain = 0
KOD1 102246Z 12003KT 12/M03 A303 RMK A01 T01161032  RH  035%=      5-min Rain = 0
KOD1 102247Z 13003KT 12/M03 A303 RMK A01 T01161031  RH  036%=      5-min Rain = 0
KOD1 102248Z 13003KT 12/M03 A303 RMK A01 T01161030  RH  036%=      5-min Rain = 0
KOD1 102249Z 13003KT 12/M03 A303 RMK A01 T01161026  RH  037%=      5-min Rain = 0
KOD1 102250Z 13004KT 12/M02 A303 RMK A01 T01161024  RH  037%=      5-min Rain = 0
KOD1 102251Z 13003KT 12/M03 A303 RMK A01 T01161026  RH  037%=      5-min Rain = 0
KOD1 102252Z 13003KT 12/M03 A303 RMK A01 T01151026  RH  037%=      5-min Rain = 0
KOD1 102253Z 14003KT 12/M03 A303 RMK A01 T01151025  RH  037%=      5-min Rain = 0
KOD1 102254Z 14003KT 12/M02 A303 RMK A01 T01151024  RH  038%=      5-min Rain = 0
KOD1 102255Z 14003KT 12/M02 A303 RMK A01 T01151024  RH  038%=      5-min Rain = 0
KOD1 102256Z 14003KT 12/M02 A303 RMK A01 T01151024  RH  038%=      5-min Rain = 0
KOD1 102257Z 15003KT 11/M02 A303 RMK A01 T01141023  RH  038%=      5-min Rain = 0
KOD1 102258Z 14003KT 11/M02 A303 RMK A01 T01141022  RH  039%=      5-min Rain = 0
KOD1 102259Z 14003KT 11/M02 A303 RMK A01 T01141022  RH  039%=      5-min Rain = 0
KOD1 102300Z 14003KT 11/M02 A303 RMK A01 T01131024  RH  038%=      5-min Rain = 0
KOD1 102301Z 14003KT 11/M03 A303 RMK A01 T01121026  RH  038%=      5-min Rain = 0
KOD1 102302Z 14004KT 11/M03 A303 RMK A01 T01121027  RH  038%=      5-min Rain = 0
KOD1 102303Z 15004KT 11/M03 A303 RMK A01 T01111028  RH  038%=      5-min Rain = 0
KOD1 102304Z 15004KT 11/M03 A303 RMK A01 T01101026  RH  038%=      5-min Rain = 0
KOD1 102305Z 15004KT 11/M03 A303 RMK A01 T01101026  RH  039%=      5-min Rain = 0
KOD1 102306Z 15004KT 11/M03 A303 RMK A01 T01091026  RH  039%=      5-min Rain = 0
KOD1 102307Z 15004KT 11/M03 A303 RMK A01 T01081025  RH  039%=      5-min Rain = 0
KOD1 102308Z 15004KT 11/M02 A303 RMK A01 T01071024  RH  040%=      5-min Rain = 0
KOD1 102309Z 16004KT 11/M02 A303 RMK A01 T01061023  RH  040%=      5-min Rain = 0
KOD1 102310Z 16004KT 11/M02 A303 RMK A01 T01061021  RH  041%=      5-min Rain = 0
KOD1 102311Z 16003KT 11/M02 A303 RMK A01 T01051019  RH  042%=      5-min Rain = 0
KOD1 102312Z 16003KT 10/M02 A303 RMK A01 T01041017  RH  043%=      5-min Rain = 0
KOD1 102313Z 15003KT 10/M02 A303 RMK A01 T01031019  RH  042%=      5-min Rain = 0
KOD1 102314Z 15004KT 10/M02 A303 RMK A01 T01021022  RH  042%=      5-min Rain = 0
KOD1 102315Z 15004KT 10/M03 A303 RMK A01 T01011026  RH  041%=      5-min Rain = 0
KOD1 102316Z 15003KT 10/M03 A303 RMK A01 T01001027  RH  041%=      5-min Rain = 0
KOD1 102317Z 15003KT 10/M03 A303 RMK A01 T00981027  RH  041%=      5-min Rain = 0
KOD1 102318Z 15003KT 10/M03 A303 RMK A01 T00971025  RH  042%=      5-min Rain = 0
KOD1 102319Z 16003KT 10/M02 A303 RMK A01 T00951024  RH  043%=      5-min Rain = 0
KOD1 102320Z 16003KT 09/M02 A303 RMK A01 T00941022  RH  044%=      5-min Rain = 0
KOD1 102321Z 16003KT 09/M02 A3031 RMK A01 T00931021  RH  045%=      5-min Rain = 0
KOD1 102322Z 17003KT 09/M02 A3031 RMK A01 T00921020  RH  045%=      5-min Rain = 0
KOD1 102323Z 17003KT 09/M02 A3031 RMK A01 T00911019  RH  046%=      5-min Rain = 0
KOD1 102324Z 17003KT 09/M02 A3031 RMK A01 T00901020  RH  046%=      5-min Rain = 0
KOD1 102325Z 17003KT 09/M02 A3031 RMK A01 T00891020  RH  047%=      5-min Rain = 0
KOD1 102326Z 16003KT 09/M02 A3031 RMK A01 T00881018  RH  047%=      5-min Rain = 0
KOD1 102327Z 16003KT 09/M02 A3031 RMK A01 T00861017  RH  048%=      5-min Rain = 0
KOD1 102328Z 16003KT 09/M02 A3031 RMK A01 T00851017  RH  049%=      5-min Rain = 0
KOD1 102329Z 16003KT 08/M02 A3031 RMK A01 T00841017  RH  049%=      5-min Rain = 0
KOD1 102330Z 17003KT 08/M02 A3031 RMK A01 T00831017  RH  049%=      5-min Rain = 0
KOD1 102331Z 17003KT 08/M02 A3031 RMK A01 T00821017  RH  050%=      5-min Rain = 0
KOD1 102332Z 18003KT 08/M02 A3031 RMK A01 T00811017  RH  050%=      5-min Rain = 0
KOD1 102333Z 18003KT 08/M02 A3031 RMK A01 T00801017  RH  051%=      5-min Rain = 0
KOD1 102334Z 18003KT 08/M02 A3031 RMK A01 T00791016  RH  051%=      5-min Rain = 0
KOD1 102335Z 18003KT 08/M02 A3031 RMK A01 T00781015  RH  052%=      5-min Rain = 0
KOD1 102336Z 18003KT 08/M02 A3031 RMK A01 T00771015  RH  052%=      5-min Rain = 0
KOD1 102337Z 18003KT 08/M02 A3031 RMK A01 T00761015  RH  052%=      5-min Rain = 0
KOD1 102338Z 18003KT 08/M02 A3031 RMK A01 T00751016  RH  052%=      5-min Rain = 0
KOD1 102339Z 18003KT 08/M02 A3031 RMK A01 T00751017  RH  052%=      5-min Rain = 0
KOD1 102340Z 18003KT 07/M02 A3031 RMK A01 T00741017  RH  052%=      5-min Rain = 0
KOD1 102341Z 18003KT 07/M02 A3031 RMK A01 T00741018  RH  052%=      5-min Rain = 0
KOD1 102342Z 19003KT 07/M02 A3031 RMK A01 T00741018  RH  052%=      5-min Rain = 0
KOD1 102343Z 19003KT 07/M02 A3031 RMK A01 T00741018  RH  052%=      5-min Rain = 0
KOD1 102344Z 18003KT 07/M02 A3031 RMK A01 T00731017  RH  053%=      5-min Rain = 0
KOD1 102345Z 18003KT 07/M02 A3031 RMK A01 T00731017  RH  053%=      5-min Rain = 0
KOD1 102346Z 18003KT 07/M02 A3031 RMK A01 T00721020  RH  052%=      5-min Rain = 0
KOD1 102347Z 18003KT 07/M02 A3031 RMK A01 T00711020  RH  053%=      5-min Rain = 0
KOD1 102348Z 18004KT 07/M02 A3031 RMK A01 T00691020  RH  053%=      5-min Rain = 0
KOD1 102349Z 18004KT 07/M02 A3031 RMK A01 T00681020  RH  054%=      5-min Rain = 0
KOD1 102350Z 18004KT 07/M02 A3031 RMK A01 T00671020  RH  054%=      5-min Rain = 0
KOD1 102351Z 18004KT 07/M02 A3031 RMK A01 T00661020  RH  054%=      5-min Rain = 0
KOD1 102352Z 18004KT 07/M02 A3031 RMK A01 T00651020  RH  055%=      5-min Rain = 0
KOD1 102353Z 18004KT 07/M02 A3031 RMK A01 T00651020  RH  055%=      5-min Rain = 0
KOD1 102354Z 18004KT 06/M02 A3031 RMK A01 T00641020  RH  055%=      5-min Rain = 0
KOD1 102355Z 18004KT 06/M02 A3031 RMK A01 T00641020  RH  055%=      5-min Rain = 0
KOD1 102356Z 18004KT 06/M02 A3031 RMK A01 T00631020  RH  055%=      5-min Rain = 0
KOD1 102357Z 18004KT 06/M02 A3031 RMK A01 T00621020  RH  056%=      5-min Rain = 0
KOD1 102358Z 17004KT 06/M02 A3031 RMK A01 T00611021  RH  056%=      5-min Rain = 0
KOD1 102359Z 17004KT 06/M02 A3031 RMK A01 T00601020  RH  056%=      5-min Rain = 0
KOD1 110000Z 17004KT 06/M02 A3031 RMK A01 T00591020  RH  057%=      5-min Rain = 0
KOD1 110001Z 16004KT 06/M02 A3031 RMK A01 T00571020  RH  057%=      5-min Rain = 0
KOD1 110002Z 16004KT 06/M02 A3031 RMK A01 T00561020  RH  058%=      5-min Rain = 0
KOD1 110003Z 17004KT 06/M02 A3031 RMK A01 T00551019  RH  059%=      5-min Rain = 0
KOD1 110004Z 17004KT 06/M02 A3031 RMK A01 T00551019  RH  059%=      5-min Rain = 0
KOD1 110005Z 17004KT 05/M02 A3031 RMK A01 T00541019  RH  059%=      5-min Rain = 0
KOD1 110006Z 17003KT 05/M02 A3031 RMK A01 T00541019  RH  059%=      5-min Rain = 0
KOD1 110007Z 17003KT 05/M02 A3031 RMK A01 T00541019  RH  059%=      5-min Rain = 0
KOD1 110008Z 17004KT 05/M02 A3031 RMK A01 T00541019  RH  059%=      5-min Rain = 0
KOD1 110009Z 17003KT 06/M02 A3031 RMK A01 T00551020  RH  059%=      5-min Rain = 0
KOD1 110010Z 17003KT 06/M02 A3031 RMK A01 T00551020  RH  058%=      5-min Rain = 0
KOD1 110011Z 17003KT 06/M02 A3031 RMK A01 T00551021  RH  058%=      5-min Rain = 0
KOD1 110012Z 17003KT 06/M02 A3031 RMK A01 T00561022  RH  058%=      5-min Rain = 0
KOD1 110013Z 17003KT 06/M02 A3031 RMK A01 T00561022  RH  057%=      5-min Rain = 0
KOD1 110014Z 17003KT 06/M02 A3031 RMK A01 T00571023  RH  056%=      5-min Rain = 0
KOD1 110015Z 17003KT 06/M02 A3031 RMK A01 T00581024  RH  056%=      5-min Rain = 0
KOD1 110016Z 17003KT 06/M03 A3031 RMK A01 T00581025  RH  055%=      5-min Rain = 0
KOD1 110017Z 17003KT 06/M03 A3031 RMK A01 T00571025  RH  055%=      5-min Rain = 0
KOD1 110018Z 17004KT 06/M03 A3031 RMK A01 T00571025  RH  055%=      5-min Rain = 0
KOD1 110019Z 17003KT 06/M03 A3031 RMK A01 T00571025  RH  056%=      5-min Rain = 0
KOD1 110020Z 17003KT 06/M03 A3031 RMK A01 T00571025  RH  055%=      5-min Rain = 0
KOD1 110021Z 17003KT 06/M03 A3031 RMK A01 T00581025  RH  055%=      5-min Rain = 0
KOD1 110022Z 17003KT 06/M03 A3031 RMK A01 T00581026  RH  055%=      5-min Rain = 0
KOD1 110023Z 17003KT 06/M03 A3031 RMK A01 T00581027  RH  055%=      5-min Rain = 0
KOD1 110024Z 17003KT 06/M03 A3031 RMK A01 T00581028  RH  054%=      5-min Rain = 0
KOD1 110025Z 17003KT 06/M03 A3031 RMK A01 T00571027  RH  055%=      5-min Rain = 0
KOD1 110026Z 16003KT 06/M03 A3031 RMK A01 T00571027  RH  055%=      5-min Rain = 0
KOD1 110027Z 16003KT 06/M03 A3031 RMK A01 T00571027  RH  055%=      5-min Rain = 0
KOD1 110028Z 16003KT 06/M03 A3031 RMK A01 T00571026  RH  055%=      5-min Rain = 0
KOD1 110029Z 15003KT 06/M03 A3031 RMK A01 T00561026  RH  055%=      5-min Rain = 0
KOD1 110030Z 15003KT 06/M03 A3031 RMK A01 T00561026  RH  055%=      5-min Rain = 0
KOD1 110031Z 14003KT 06/M02 A3031 RMK A01 T00561024  RH  056%=      5-min Rain = 0
KOD1 110032Z 14004KT 05/M03 A3031 RMK A01 T00541025  RH  057%=      5-min Rain = 0
KOD1 110033Z 14004KT 05/M02 A3031 RMK A01 T00531020  RH  059%=      5-min Rain = 0
KOD1 110034Z 13003KT 06/M02 A3031 RMK A01 T00551020  RH  058%=      5-min Rain = 0
KOD1 110035Z 13003KT 06/M02 A3031 RMK A01 T00561023  RH  057%=      5-min Rain = 0
KOD1 110036Z 13003KT 06/M03 A3031 RMK A01 T00571028  RH  055%=      5-min Rain = 0
KOD1 110037Z 14003KT 06/M03 A3031 RMK A01 T00591029  RH  053%=      5-min Rain = 0
KOD1 110038Z 14004KT 06/M03 A3031 RMK A01 T00601029  RH  053%=      5-min Rain = 0
KOD1 110039Z 14004KT 06/M03 A3031 RMK A01 T00581029  RH  054%=      5-min Rain = 0
KOD1 110040Z 14004KT 05/M03 A3031 RMK A01 T00541030  RH  054%=      5-min Rain = 0
KOD1 110041Z 15004KT 05/M03 A3031 RMK A01 T00511031  RH  056%=      5-min Rain = 0
KOD1 110042Z 15005KT 05/M03 A3031 RMK A01 T00471031  RH  057%=      5-min Rain = 0
KOD1 110043Z 15005KT 05/M03 A3031 RMK A01 T00451029  RH  059%=      5-min Rain = 0
KOD1 110044Z 15005KT 04/M03 A3031 RMK A01 T00431026  RH  060%=      5-min Rain = 0
KOD1 110045Z 15005KT 04/M03 A3031 RMK A01 T00431025  RH  061%=      5-min Rain = 0
KOD1 110046Z 15004KT 04/M03 A3031 RMK A01 T00431025  RH  061%=      5-min Rain = 0
KOD1 110047Z 15004KT 04/M03 A3031 RMK A01 T00431025  RH  062%=      5-min Rain = 0
KOD1 110048Z 14004KT 04/M02 A3031 RMK A01 T00431024  RH  062%=      5-min Rain = 0
KOD1 110049Z 14004KT 04/M02 A3031 RMK A01 T00431024  RH  062%=      5-min Rain = 0
KOD1 110050Z 15004KT 04/M03 A3031 RMK A01 T00421025  RH  062%=      5-min Rain = 0
KOD1 110051Z 15004KT 04/M03 A3031 RMK A01 T00391026  RH  062%=      5-min Rain = 0
KOD1 110052Z 15004KT 04/M03 A3031 RMK A01 T00381026  RH  063%=      5-min Rain = 0
KOD1 110053Z 14004KT 04/M02 A3031 RMK A01 T00371024  RH  065%=      5-min Rain = 0
KOD1 110054Z 14004KT 04/M02 A3031 RMK A01 T00381022  RH  065%=      5-min Rain = 0
KOD1 110055Z 13004KT 04/M02 A3031 RMK A01 T00401020  RH  065%=      5-min Rain = 0
KOD1 110056Z 13005KT 04/M02 A3031 RMK A01 T00421020  RH  064%=      5-min Rain = 0
KOD1 110057Z 13004KT 04/M02 A3031 RMK A01 T00441021  RH  062%=      5-min Rain = 0
KOD1 110058Z 12005KT 05/M02 A3031 RMK A01 T00461021  RH  062%=      5-min Rain = 0
KOD1 110059Z 12005KT 05/M02 A3031 RMK A01 T00481022  RH  061%=      5-min Rain = 0
KOD1 110100Z 12005KT 05/M02 A3031 RMK A01 T00501022  RH  060%=      5-min Rain = 0
KOD1 110101Z 12005KT 05/M02 A3031 RMK A01 T00521022  RH  059%=      5-min Rain = 0
KOD1 110102Z 12005KT 05/M02 A3031 RMK A01 T00521021  RH  059%=      5-min Rain = 0
KOD1 110103Z 12005KT 05/M02 A3031 RMK A01 T00511020  RH  060%=      5-min Rain = 0
KOD1 110104Z 12005KT 05/M02 A3031 RMK A01 T00501020  RH  061%=      5-min Rain = 0
KOD1 110105Z 12005KT 05/M02 A3031 RMK A01 T00491019  RH  061%=      5-min Rain = 0
KOD1 110106Z 12006KT 05/M02 A3031 RMK A01 T00481019  RH  062%=      5-min Rain = 0
KOD1 110107Z 12006KT 05/M02 A3031 RMK A01 T00471019  RH  063%=      5-min Rain = 0
KOD1 110108Z 12006KT 05/M02 A3031 RMK A01 T00451018  RH  063%=      5-min Rain = 0
KOD1 110109Z 12005KT 04/M02 A3031 RMK A01 T00441018  RH  064%=      5-min Rain = 0
KOD1 110110Z 12005KT 04/M02 A3031 RMK A01 T00431018  RH  065%=      5-min Rain = 0
KOD1 110111Z 12006KT 04/M02 A3031 RMK A01 T00421018  RH  065%=      5-min Rain = 0
KOD1 110112Z 12006KT 04/M02 A3031 RMK A01 T00431018  RH  065%=      5-min Rain = 0
KOD1 110113Z 13006KT 04/M02 A3031 RMK A01 T00431019  RH  064%=      5-min Rain = 0
KOD1 110114Z 13006KT 04/M02 A3031 RMK A01 T00431019  RH  064%=      5-min Rain = 0
KOD1 110115Z 13006KT 04/M02 A3031 RMK A01 T00431019  RH  064%=      5-min Rain = 0
KOD1 110116Z 12006KT 04/M02 A3031 RMK A01 T00431019  RH  064%=      5-min Rain = 0
KOD1 110117Z 12006KT 04/M02 A3031 RMK A01 T00431018  RH  064%=      5-min Rain = 0
KOD1 110118Z 12006KT 04/M02 A3031 RMK A01 T00441019  RH  064%=      5-min Rain = 0
KOD1 110119Z 12006KT 05/M02 A3031 RMK A01 T00461019  RH  063%=      5-min Rain = 0
KOD1 110120Z 12006KT 05/M02 A3031 RMK A01 T00471020  RH  062%=      5-min Rain = 0
KOD1 110121Z 12005KT 05/M02 A3031 RMK A01 T00481020  RH  061%=      5-min Rain = 0
KOD1 110122Z 12005KT 05/M02 A3031 RMK A01 T00481020  RH  061%=      5-min Rain = 0
KOD1 110123Z 12006KT 05/M02 A3031 RMK A01 T00481021  RH  061%=      5-min Rain = 0
KOD1 110124Z 12006KT 05/M02 A3031 RMK A01 T00491022  RH  060%=      5-min Rain = 0
KOD1 110125Z 12006KT 05/M02 A3031 RMK A01 T00491023  RH  060%=      5-min Rain = 0
KOD1 110126Z 12006KT 05/M02 A3031 RMK A01 T00481022  RH  060%=      5-min Rain = 0
KOD1 110127Z 12006KT 05/M02 A3031 RMK A01 T00481022  RH  061%=      5-min Rain = 0
KOD1 110128Z 12005KT 05/M02 A3031 RMK A01 T00481021  RH  061%=      5-min Rain = 0
KOD1 110129Z 12005KT 05/M02 A3031 RMK A01 T00491022  RH  060%=      5-min Rain = 0
KOD1 110130Z 12005KT 05/M02 A3031 RMK A01 T00491023  RH  060%=      5-min Rain = 0
KOD1 110131Z 12005KT 05/M02 A3031 RMK A01 T00491023  RH  060%=      5-min Rain = 0
KOD1 110132Z 12006KT 05/M02 A3031 RMK A01 T00501023  RH  059%=      5-min Rain = 0
KOD1 110133Z 13005KT 05/M02 A3031 RMK A01 T00501024  RH  059%=      5-min Rain = 0
KOD1 110134Z 13006KT 05/M02 A3031 RMK A01 T00501023  RH  059%=      5-min Rain = 0
KOD1 110135Z 13006KT 05/M02 A3031 RMK A01 T00491023  RH  060%=      5-min Rain = 0
KOD1 110136Z 13006KT 05/M02 A3031 RMK A01 T00481023  RH  060%=      5-min Rain = 0
KOD1 110137Z 13006KT 05/M02 A3031 RMK A01 T00451023  RH  061%=      5-min Rain = 0
KOD1 110138Z 13006KT 04/M02 A3031 RMK A01 T00431022  RH  063%=      5-min Rain = 0
KOD1 110139Z 13006KT 04/M02 A3031 RMK A01 T00411021  RH  064%=      5-min Rain = 0
KOD1 110140Z 13006KT 04/M02 A3031 RMK A01 T00391022  RH  064%=      5-min Rain = 0
KOD1 110141Z 13006KT 04/M02 A3031 RMK A01 T00381022  RH  065%=      5-min Rain = 0
KOD1 110142Z 13007KT 04/M02 A3031 RMK A01 T00381021  RH  065%=      5-min Rain = 0
KOD1 110143Z 12007KT 04/M02 A3031 RMK A01 T00391021  RH  065%=      5-min Rain = 0
KOD1 110144Z 12007KT 04/M02 A3031 RMK A01 T00401020  RH  065%=      5-min Rain = 0
KOD1 110145Z 12007KT 04/M02 A3031 RMK A01 T00401020  RH  065%=      5-min Rain = 0
KOD1 110146Z 12007KT 04/M02 A3031 RMK A01 T00401020  RH  065%=      5-min Rain = 0
KOD1 110147Z 13008KT 04/M02 A3031 RMK A01 T00401020  RH  065%=      5-min Rain = 0
KOD1 110148Z 13008KT 04/M02 A3031 RMK A01 T00401020  RH  065%=      5-min Rain = 0
KOD1 110149Z 13007KT 04/M02 A3031 RMK A01 T00401019  RH  065%=      5-min Rain = 0
KOD1 110150Z 13007KT 04/M02 A3031 RMK A01 T00421018  RH  065%=      5-min Rain = 0
KOD1 110151Z 13008KT 04/M02 A3031 RMK A01 T00441018  RH  064%=      5-min Rain = 0
KOD1 110152Z 13008KT 05/M02 A3031 RMK A01 T00461017  RH  064%=      5-min Rain = 0
KOD1 110153Z 13007KT 05/M02 A3031 RMK A01 T00481017  RH  063%=      5-min Rain = 0
KOD1 110154Z 13007KT 05/M02 A3031 RMK A01 T00481018  RH  063%=      5-min Rain = 0
KOD1 110155Z 14007KT 05/M02 A3031 RMK A01 T00471018  RH  063%=      5-min Rain = 0
KOD1 110156Z 14007KT 05/M02 A3031 RMK A01 T00471018  RH  063%=      5-min Rain = 0
KOD1 110157Z 14007KT 05/M02 A3031 RMK A01 T00471019  RH  062%=      5-min Rain = 0
KOD1 110158Z 13007KT 05/M02 A3031 RMK A01 T00481019  RH  062%=      5-min Rain = 0
KOD1 110159Z 14007KT 05/M02 A3031 RMK A01 T00481019  RH  062%=      5-min Rain = 0
KOD1 110200Z 13007KT 05/M02 A3031 RMK A01 T00481019  RH  062%=      5-min Rain = 0
KOD1 110201Z 13007KT 05/M02 A3031 RMK A01 T00481019  RH  062%=      5-min Rain = 0
KOD1 110202Z 13007KT 05/M02 A303 RMK A01 T00481019  RH  062%=      5-min Rain = 0
KOD1 110203Z 13007KT 05/M02 A303 RMK A01 T00471018  RH  062%=      5-min Rain = 0
KOD1 110204Z 13007KT 05/M02 A303 RMK A01 T00471018  RH  063%=      5-min Rain = 0
KOD1 110205Z 13007KT 05/M02 A3031 RMK A01 T00471017  RH  063%=      5-min Rain = 0
KOD1 110206Z 13007KT 05/M02 A3031 RMK A01 T00471016  RH  063%=      5-min Rain = 0
KOD1 110207Z 14007KT 05/M02 A3031 RMK A01 T00471016  RH  064%=      5-min Rain = 0
KOD1 110208Z 14006KT 05/M02 A3031 RMK A01 T00461016  RH  064%=      5-min Rain = 0
KOD1 110209Z 14006KT 05/M02 A3031 RMK A01 T00451016  RH  064%=      5-min Rain = 0
KOD1 110210Z 14007KT 05/M02 A3031 RMK A01 T00451015  RH  065%=      5-min Rain = 0
KOD1 110211Z 13007KT 05/M02 A3031 RMK A01 T00451016  RH  064%=      5-min Rain = 0
KOD1 110212Z 13007KT 05/M02 A3031 RMK A01 T00461017  RH  064%=      5-min Rain = 0
KOD1 110213Z 13007KT 05/M02 A3031 RMK A01 T00461017  RH  064%=      5-min Rain = 0
KOD1 110214Z 13007KT 05/M02 A3031 RMK A01 T00461016  RH  064%=      5-min Rain = 0
KOD1 110215Z 14007KT 05/M02 A3031 RMK A01 T00461017  RH  064%=      5-min Rain = 0
KOD1 110216Z 14007KT 05/M02 A3031 RMK A01 T00461017  RH  064%=      5-min Rain = 0
KOD1 110217Z 14006KT 05/M02 A303 RMK A01 T00461017  RH  064%=      5-min Rain = 0
KOD1 110218Z 14007KT 05/M02 A303 RMK A01 T00461017  RH  064%=      5-min Rain = 0
KOD1 110219Z 14007KT 05/M02 A303 RMK A01 T00461017  RH  063%=      5-min Rain = 0
KOD1 110220Z 14007KT 05/M02 A303 RMK A01 T00461017  RH  063%=      5-min Rain = 0
KOD1 110221Z 14007KT 05/M02 A303 RMK A01 T00461018  RH  063%=      5-min Rain = 0
KOD1 110222Z 14007KT 05/M02 A303 RMK A01 T00451018  RH  064%=      5-min Rain = 0
KOD1 110223Z 14007KT 04/M02 A303 RMK A01 T00441018  RH  064%=      5-min Rain = 0
KOD1 110224Z 14007KT 04/M02 A303 RMK A01 T00441018  RH  064%=      5-min Rain = 0
KOD1 110225Z 14007KT 04/M02 A303 RMK A01 T00431018  RH  064%=      5-min Rain = 0
KOD1 110226Z 14007KT 04/M02 A303 RMK A01 T00421018  RH  065%=      5-min Rain = 0
KOD1 110227Z 14007KT 04/M02 A303 RMK A01 T00411018  RH  065%=      5-min Rain = 0
KOD1 110228Z 14006KT 04/M02 A303 RMK A01 T00411018  RH  066%=      5-min Rain = 0
KOD1 110229Z 14007KT 04/M02 A303 RMK A01 T00401018  RH  066%=      5-min Rain = 0
KOD1 110230Z 14007KT 04/M02 A3031 RMK A01 T00401018  RH  066%=      5-min Rain = 0
KOD1 110231Z 14007KT 04/M02 A3031 RMK A01 T00401018  RH  066%=      5-min Rain = 0
KOD1 110232Z 14007KT 04/M02 A3031 RMK A01 T00401018  RH  066%=      5-min Rain = 0
KOD1 110233Z 14006KT 04/M02 A3031 RMK A01 T00401017  RH  066%=      5-min Rain = 0
KOD1 110234Z 14006KT 04/M02 A3031 RMK A01 T00401017  RH  066%=      5-min Rain = 0
KOD1 110235Z 14007KT 04/M02 A3031 RMK A01 T00401016  RH  067%=      5-min Rain = 0
KOD1 110236Z 14007KT 04/M02 A3031 RMK A01 T00411016  RH  067%=      5-min Rain = 0
KOD1 110237Z 14007KT 04/M02 A3031 RMK A01 T00411016  RH  067%=      5-min Rain = 0
KOD1 110238Z 14007KT 04/M02 A3031 RMK A01 T00411016  RH  066%=      5-min Rain = 0
KOD1 110239Z 14006KT 04/M02 A3031 RMK A01 T00411016  RH  066%=      5-min Rain = 0
KOD1 110240Z 14007KT 04/M02 A3031 RMK A01 T00411016  RH  067%=      5-min Rain = 0
KOD1 110241Z 14007KT 04/M02 A3031 RMK A01 T00411016  RH  067%=      5-min Rain = 0
KOD1 110242Z 14007KT 04/M02 A3031 RMK A01 T00411016  RH  066%=      5-min Rain = 0
KOD1 110243Z 14007KT 04/M02 A3031 RMK A01 T00411016  RH  066%=      5-min Rain = 0
KOD1 110244Z 14007KT 04/M02 A3031 RMK A01 T00411016  RH  066%=      5-min Rain = 0
KOD1 110245Z 14007KT 04/M02 A3031 RMK A01 T00411016  RH  066%=      5-min Rain = 0
KOD1 110246Z 14007KT 04/M02 A3031 RMK A01 T00411016  RH  066%=      5-min Rain = 0
KOD1 110247Z 14007KT 04/M02 A3031 RMK A01 T00411015  RH  067%=      5-min Rain = 0
KOD1 110248Z 14007KT 04/M02 A3031 RMK A01 T00411015  RH  067%=      5-min Rain = 0
KOD1 110249Z 14007KT 04/M02 A3031 RMK A01 T00411015  RH  067%=      5-min Rain = 0
KOD1 110250Z 14007KT 04/M02 A3031 RMK A01 T00411016  RH  066%=      5-min Rain = 0
KOD1 110251Z 14007KT 04/M02 A3031 RMK A01 T00411016  RH  066%=      5-min Rain = 0
KOD1 110252Z 14007KT 04/M02 A3031 RMK A01 T00401016  RH  067%=      5-min Rain = 0
KOD1 110253Z 14006KT 04/M02 A3031 RMK A01 T00391017  RH  067%=      5-min Rain = 0
KOD1 110254Z 14006KT 04/M02 A3031 RMK A01 T00371017  RH  067%=      5-min Rain = 0
KOD1 110255Z 14006KT 04/M02 A3031 RMK A01 T00371016  RH  068%=      5-min Rain = 0
KOD1 110256Z 14007KT 04/M02 A3031 RMK A01 T00371016  RH  068%=      5-min Rain = 0
KOD1 110257Z 14007KT 04/M02 A3031 RMK A01 T00371016  RH  068%=      5-min Rain = 0
KOD1 110258Z 14007KT 04/M02 A3031 RMK A01 T00381016  RH  068%=      5-min Rain = 0
KOD1 110259Z 13006KT 04/M02 A3031 RMK A01 T00371017  RH  068%=      5-min Rain = 0
KOD1 110300Z 14007KT 04/M02 A3031 RMK A01 T00371016  RH  068%=      5-min Rain = 0
KOD1 110301Z 14006KT 04/M02 A3031 RMK A01 T00371016  RH  068%=      5-min Rain = 0
KOD1 110302Z 14007KT 04/M02 A3031 RMK A01 T00371016  RH  068%=      5-min Rain = 0
KOD1 110303Z 13007KT 04/M02 A3031 RMK A01 T00371016  RH  068%=      5-min Rain = 0
KOD1 110304Z 13008KT 04/M02 A3031 RMK A01 T00371016  RH  068%=      5-min Rain = 0
KOD1 110305Z 13009KT 04/M02 A3031 RMK A01 T00371016  RH  068%=      5-min Rain = 0
KOD1 110306Z 13008KT 04/M02 A3031 RMK A01 T00371016  RH  068%=      5-min Rain = 0
KOD1 110307Z 13008KT 04/M02 A3031 RMK A01 T00381016  RH  068%=      5-min Rain = 0
KOD1 110308Z 13007KT 04/M02 A303 RMK A01 T00371016  RH  068%=      5-min Rain = 0
KOD1 110309Z 12008KT 04/M02 A303 RMK A01 T00371015  RH  068%=      5-min Rain = 0
KOD1 110310Z 12008KT 04/M01 A303 RMK A01 T00381014  RH  069%=      5-min Rain = 0
KOD1 110311Z 13009KT 04/M01 A303 RMK A01 T00391014  RH  068%=      5-min Rain = 0
KOD1 110312Z 13009KT 04/M01 A303 RMK A01 T00401014  RH  068%=      5-min Rain = 0
KOD1 110313Z 13008KT 04/M01 A303 RMK A01 T00401013  RH  068%=      5-min Rain = 0
KOD1 110314Z 13009KT 04/M01 A303 RMK A01 T00411013  RH  068%=      5-min Rain = 0
KOD1 110315Z 13009KT 04/M01 A303 RMK A01 T00421013  RH  067%=      5-min Rain = 0
KOD1 110316Z 13008KT 04/M01 A303 RMK A01 T00421013  RH  067%=      5-min Rain = 0
KOD1 110317Z 13007KT 04/M01 A303 RMK A01 T00421013  RH  067%=      5-min Rain = 0
KOD1 110318Z 14007KT 04/M01 A303 RMK A01 T00411014  RH  068%=      5-min Rain = 0
KOD1 110319Z 14008KT 04/M01 A303 RMK A01 T00391014  RH  068%=      5-min Rain = 0
KOD1 110320Z 14007KT 04/M01 A303 RMK A01 T00381014  RH  069%=      5-min Rain = 0
KOD1 110321Z 14007KT 04/M01 A303 RMK A01 T00371013  RH  069%=      5-min Rain = 0
KOD1 110322Z 13007KT 04/M01 A303 RMK A01 T00371014  RH  069%=      5-min Rain = 0
KOD1 110323Z 14006KT 04/M01 A303 RMK A01 T00361014  RH  070%=      5-min Rain = 0
KOD1 110324Z 14006KT 04/M02 A303 RMK A01 T00351015  RH  070%=      5-min Rain = 0
KOD1 110325Z 14007KT 04/M02 A303 RMK A01 T00351015  RH  070%=      5-min Rain = 0
KOD1 110326Z 14007KT 03/M02 A303 RMK A01 T00341015  RH  070%=      5-min Rain = 0
KOD1 110327Z 14007KT 03/M02 A303 RMK A01 T00341015  RH  071%=      5-min Rain = 0
KOD1 110328Z 14008KT 03/M02 A303 RMK A01 T00341015  RH  071%=      5-min Rain = 0
KOD1 110329Z 14007KT 03/M02 A303 RMK A01 T00341015  RH  071%=      5-min Rain = 0
KOD1 110330Z 13008KT 03/M02 A303 RMK A01 T00341015  RH  070%=      5-min Rain = 0
KOD1 110331Z 14008KT 03/M02 A303 RMK A01 T00341015  RH  070%=      5-min Rain = 0
KOD1 110332Z 13008KT 04/M02 A303 RMK A01 T00351015  RH  070%=      5-min Rain = 0
KOD1 110333Z 14008KT 04/M02 A303 RMK A01 T00351015  RH  070%=      5-min Rain = 0
KOD1 110334Z 14007KT 04/M02 A303 RMK A01 T00351015  RH  070%=      5-min Rain = 0
KOD1 110335Z 14007KT 03/M02 A303 RMK A01 T00341015  RH  070%=      5-min Rain = 0
KOD1 110336Z 14007KT 03/M02 A303 RMK A01 T00341015  RH  070%=      5-min Rain = 0
KOD1 110337Z 14007KT 03/M02 A303 RMK A01 T00331015  RH  071%=      5-min Rain = 0
KOD1 110338Z 14007KT 03/M02 A303 RMK A01 T00321015  RH  071%=      5-min Rain = 0
KOD1 110339Z 14007KT 03/M02 A303 RMK A01 T00321015  RH  071%=      5-min Rain = 0
KOD1 110340Z 14007KT 03/M02 A303 RMK A01 T00311015  RH  072%=      5-min Rain = 0
KOD1 110341Z 14007KT 03/M02 A303 RMK A01 T00311015  RH  072%=      5-min Rain = 0
KOD1 110342Z 14007KT 03/M02 A303 RMK A01 T00311015  RH  072%=      5-min Rain = 0
KOD1 110343Z 14008KT 03/M02 A303 RMK A01 T00301015  RH  072%=      5-min Rain = 0
KOD1 110344Z 14008KT 03/M02 A303 RMK A01 T00301015  RH  072%=      5-min Rain = 0
KOD1 110345Z 14008KT 03/M02 A303 RMK A01 T00291015  RH  073%=      5-min Rain = 0
KOD1 110346Z 14007KT 03/M02 A303 RMK A01 T00301015  RH  073%=      5-min Rain = 0
KOD1 110347Z 14007KT 03/M02 A303 RMK A01 T00301015  RH  072%=      5-min Rain = 0
KOD1 110348Z 14007KT 03/M02 A303 RMK A01 T00291016  RH  072%=      5-min Rain = 0
KOD1 110349Z 14007KT 03/M02 A303 RMK A01 T00281016  RH  073%=      5-min Rain = 0
KOD1 110350Z 14006KT 03/M02 A303 RMK A01 T00281016  RH  073%=      5-min Rain = 0
KOD1 110351Z 15006KT 03/M02 A303 RMK A01 T00271016  RH  073%=      5-min Rain = 0
KOD1 110352Z 15006KT 03/M02 A303 RMK A01 T00271016  RH  073%=      5-min Rain = 0
KOD1 110353Z 15007KT 03/M02 A303 RMK A01 T00261017  RH  074%=      5-min Rain = 0
KOD1 110354Z 15007KT 03/M02 A303 RMK A01 T00251016  RH  074%=      5-min Rain = 0
KOD1 110355Z 15008KT 03/M02 A303 RMK A01 T00251016  RH  074%=      5-min Rain = 0
KOD1 110356Z 15008KT 03/M02 A303 RMK A01 T00251016  RH  074%=      5-min Rain = 0
KOD1 110357Z 14008KT 03/M02 A303 RMK A01 T00251016  RH  074%=      5-min Rain = 0
KOD1 110358Z 14009KT 03/M02 A303 RMK A01 T00251016  RH  074%=      5-min Rain = 0
KOD1 110359Z 14008KT 03/M02 A303 RMK A01 T00251015  RH  075%=      5-min Rain = 0
KOD1 110400Z 14008KT 03/M02 A303 RMK A01 T00261015  RH  074%=      5-min Rain = 0
KOD1 110401Z 14008KT 03/M02 A303 RMK A01 T00271015  RH  074%=      5-min Rain = 0
KOD1 110402Z 14008KT 03/M02 A303 RMK A01 T00281015  RH  073%=      5-min Rain = 0
KOD1 110403Z 14008KT 03/M02 A303 RMK A01 T00281015  RH  073%=      5-min Rain = 0
KOD1 110404Z 14007KT 03/M02 A303 RMK A01 T00281015  RH  073%=      5-min Rain = 0
KOD1 110405Z 14007KT 03/M02 A303 RMK A01 T00281015  RH  073%=      5-min Rain = 0
KOD1 110406Z 14007KT 03/M02 A303 RMK A01 T00281015  RH  073%=      5-min Rain = 0
KOD1 110407Z 14006KT 03/M02 A303 RMK A01 T00281015  RH  073%=      5-min Rain = 0
KOD1 110408Z 14006KT 03/M02 A303 RMK A01 T00281015  RH  073%=      5-min Rain = 0
KOD1 110409Z 15006KT 03/M02 A303 RMK A01 T00281015  RH  073%=      5-min Rain = 0
KOD1 110410Z 15007KT 03/M02 A303 RMK A01 T00291015  RH  073%=      5-min Rain = 0
KOD1 110411Z 15007KT 03/M02 A303 RMK A01 T00291016  RH  072%=      5-min Rain = 0
KOD1 110412Z 15007KT 03/M02 A303 RMK A01 T00301016  RH  072%=      5-min Rain = 0
KOD1 110413Z 15008KT 03/M02 A303 RMK A01 T00301016  RH  072%=      5-min Rain = 0
KOD1 110414Z 14008KT 03/M02 A303 RMK A01 T00301017  RH  071%=      5-min Rain = 0
KOD1 110415Z 14008KT 03/M02 A303 RMK A01 T00301017  RH  071%=      5-min Rain = 0
KOD1 110416Z 14008KT 03/M02 A303 RMK A01 T00291017  RH  071%=      5-min Rain = 0
KOD1 110417Z 14007KT 03/M02 A303 RMK A01 T00291017  RH  072%=      5-min Rain = 0
KOD1 110418Z 14007KT 03/M02 A303 RMK A01 T00281017  RH  072%=      5-min Rain = 0
KOD1 110419Z 14006KT 03/M02 A303 RMK A01 T00281018  RH  072%=      5-min Rain = 0
KOD1 110420Z 14006KT 03/M02 A303 RMK A01 T00271017  RH  073%=      5-min Rain = 0
KOD1 110421Z 15006KT 03/M02 A303 RMK A01 T00271017  RH  073%=      5-min Rain = 0
KOD1 110422Z 14006KT 03/M02 A303 RMK A01 T00271016  RH  073%=      5-min Rain = 0
KOD1 110423Z 15006KT 03/M02 A303 RMK A01 T00271016  RH  073%=      5-min Rain = 0
KOD1 110424Z 15007KT 03/M02 A303 RMK A01 T00271016  RH  073%=      5-min Rain = 0
KOD1 110425Z 15007KT 03/M02 A303 RMK A01 T00261017  RH  073%=      5-min Rain = 0
KOD1 110426Z 15007KT 03/M02 A303 RMK A01 T00261017  RH  074%=      5-min Rain = 0
KOD1 110427Z 16007KT 03/M02 A303 RMK A01 T00251016  RH  074%=      5-min Rain = 0
KOD1 110428Z 16007KT 03/M02 A303 RMK A01 T00251016  RH  074%=      5-min Rain = 0
KOD1 110429Z 16007KT 03/M02 A303 RMK A01 T00261016  RH  074%=      5-min Rain = 0
KOD1 110430Z 16007KT 03/M02 A303 RMK A01 T00261017  RH  074%=      5-min Rain = 0
KOD1 110431Z 16006KT 03/M02 A303 RMK A01 T00251017  RH  073%=      5-min Rain = 0
KOD1 110432Z 16006KT 03/M02 A303 RMK A01 T00251018  RH  073%=      5-min Rain = 0
KOD1 110433Z 16006KT 02/M02 A3031 RMK A01 T00241018  RH  074%=      5-min Rain = 0
KOD1 110434Z 16007KT 02/M02 A3031 RMK A01 T00241018  RH  074%=      5-min Rain = 0
KOD1 110435Z 16007KT 02/M02 A3031 RMK A01 T00231018  RH  074%=      5-min Rain = 0
KOD1 110436Z 16007KT 02/M02 A3031 RMK A01 T00231018  RH  074%=      5-min Rain = 0
KOD1 110437Z 16007KT 02/M02 A3031 RMK A01 T00221018  RH  075%=      5-min Rain = 0
KOD1 110438Z 16007KT 02/M02 A3031 RMK A01 T00221018  RH  075%=      5-min Rain = 0
KOD1 110439Z 16007KT 02/M02 A3031 RMK A01 T00211018  RH  075%=      5-min Rain = 0
KOD1 110440Z 16007KT 02/M02 A3031 RMK A01 T00211018  RH  076%=      5-min Rain = 0
KOD1 110441Z 17006KT 02/M02 A3031 RMK A01 T00201018  RH  076%=      5-min Rain = 0
KOD1 110442Z 17005KT 02/M02 A3031 RMK A01 T00201018  RH  076%=      5-min Rain = 0
KOD1 110443Z 17005KT 02/M02 A3031 RMK A01 T00201018  RH  076%=      5-min Rain = 0
KOD1 110444Z 17006KT 02/M02 A3031 RMK A01 T00191018  RH  076%=      5-min Rain = 0
KOD1 110445Z 17006KT 02/M02 A3031 RMK A01 T00181018  RH  077%=      5-min Rain = 0
KOD1 110446Z 18004KT 02/M02 A3031 RMK A01 T00171020  RH  076%=      5-min Rain = 0
KOD1 110447Z 18005KT 02/M02 A3031 RMK A01 T00161021  RH  077%=      5-min Rain = 0
KOD1 110448Z 18005KT 01/M02 A3031 RMK A01 T00141020  RH  078%=      5-min Rain = 0
KOD1 110449Z 17005KT 01/M02 A3031 RMK A01 T00141021  RH  078%=      5-min Rain = 0
KOD1 110450Z 18005KT 01/M02 A3031 RMK A01 T00131021  RH  078%=      5-min Rain = 0
KOD1 110451Z 18005KT 01/M02 A3031 RMK A01 T00131019  RH  079%=      5-min Rain = 0
KOD1 110452Z 18005KT 01/M02 A3031 RMK A01 T00131018  RH  080%=      5-min Rain = 0
KOD1 110453Z 18005KT 02/M02 A3031 RMK A01 T00151017  RH  079%=      5-min Rain = 0
KOD1 110454Z 17006KT 02/M02 A3031 RMK A01 T00161016  RH  079%=      5-min Rain = 0
KOD1 110455Z 17006KT 02/M02 A3031 RMK A01 T00171016  RH  079%=      5-min Rain = 0
KOD1 110456Z 17006KT 02/M02 A3031 RMK A01 T00171017  RH  078%=      5-min Rain = 0
KOD1 110457Z 16006KT 02/M02 A3031 RMK A01 T00171017  RH  078%=      5-min Rain = 0
KOD1 110458Z 16006KT 02/M02 A3031 RMK A01 T00181016  RH  078%=      5-min Rain = 0
KOD1 110459Z 15006KT 02/M02 A3031 RMK A01 T00191015  RH  078%=      5-min Rain = 0
KOD1 110500Z 15006KT 02/M02 A3031 RMK A01 T00191015  RH  078%=      5-min Rain = 0
KOD1 110501Z 15006KT 02/M02 A3031 RMK A01 T00191016  RH  078%=      5-min Rain = 0
KOD1 110502Z 16006KT 02/M02 A3031 RMK A01 T00191016  RH  078%=      5-min Rain = 0
KOD1 110503Z 16006KT 02/M02 A3031 RMK A01 T00191015  RH  078%=      5-min Rain = 0
KOD1 110504Z 16006KT 02/M02 A3031 RMK A01 T00191015  RH  078%=      5-min Rain = 0
KOD1 110505Z 16006KT 02/M01 A3031 RMK A01 T00201014  RH  078%=      5-min Rain = 0
KOD1 110506Z 16007KT 02/M01 A3031 RMK A01 T00201013  RH  079%=      5-min Rain = 0
KOD1 110507Z 15007KT 02/M01 A3031 RMK A01 T00211013  RH  079%=      5-min Rain = 0
KOD1 110508Z 15008KT 02/M01 A3031 RMK A01 T00211012  RH  079%=      5-min Rain = 0
KOD1 110509Z 15008KT 02/M01 A3031 RMK A01 T00211013  RH  078%=      5-min Rain = 0
KOD1 110510Z 16008KT 02/M01 A3031 RMK A01 T00211012  RH  078%=      5-min Rain = 0
KOD1 110511Z 16007KT 02/M01 A3031 RMK A01 T00221012  RH  078%=      5-min Rain = 0
KOD1 110512Z 16007KT 02/M01 A3031 RMK A01 T00221012  RH  078%=      5-min Rain = 0
KOD1 110513Z 16007KT 02/M01 A3031 RMK A01 T00221012  RH  078%=      5-min Rain = 0
KOD1 110514Z 16007KT 02/M01 A3031 RMK A01 T00231011  RH  078%=      5-min Rain = 0
KOD1 110515Z 16008KT 02/M01 A3031 RMK A01 T00231011  RH  078%=      5-min Rain = 0
KOD1 110516Z 15008KT 02/M01 A3031 RMK A01 T00241011  RH  078%=      5-min Rain = 0
KOD1 110517Z 15008KT 02/M01 A3031 RMK A01 T00241011  RH  078%=      5-min Rain = 0
KOD1 110518Z 14008KT 02/M01 A3031 RMK A01 T00241012  RH  077%=      5-min Rain = 0
KOD1 110519Z 15008KT 02/M01 A3031 RMK A01 T00231012  RH  078%=      5-min Rain = 0
KOD1 110520Z 15008KT 02/M01 A3031 RMK A01 T00231011  RH  078%=      5-min Rain = 0
KOD1 110521Z 15008KT 02/M01 A3031 RMK A01 T00241011  RH  078%=      5-min Rain = 0
KOD1 110522Z 15008KT 02/M01 A3031 RMK A01 T00241011  RH  078%=      5-min Rain = 0
KOD1 110523Z 15008KT 03/M01 A3031 RMK A01 T00251011  RH  077%=      5-min Rain = 0
KOD1 110524Z 15008KT 03/M01 A3031 RMK A01 T00251011  RH  077%=      5-min Rain = 0
KOD1 110525Z 15007KT 03/M01 A3031 RMK A01 T00251012  RH  077%=      5-min Rain = 0
KOD1 110526Z 15007KT 02/M01 A3031 RMK A01 T00241012  RH  077%=      5-min Rain = 0
KOD1 110527Z 15007KT 02/M01 A303 RMK A01 T00241013  RH  077%=      5-min Rain = 0
KOD1 110528Z 14007KT 02/M01 A303 RMK A01 T00231013  RH  077%=      5-min Rain = 0
KOD1 110529Z 14007KT 02/M01 A303 RMK A01 T00221013  RH  078%=      5-min Rain = 0
KOD1 110530Z 14007KT 02/M01 A303 RMK A01 T00221012  RH  078%=      5-min Rain = 0
KOD1 110531Z 14007KT 02/M01 A303 RMK A01 T00221012  RH  078%=      5-min Rain = 0
KOD1 110532Z 14007KT 02/M01 A303 RMK A01 T00221012  RH  078%=      5-min Rain = 0
KOD1 110533Z 14007KT 02/M01 A303 RMK A01 T00231011  RH  078%=      5-min Rain = 0
KOD1 110534Z 14007KT 02/M01 A303 RMK A01 T00231011  RH  078%=      5-min Rain = 0
KOD1 110535Z 14007KT 02/M01 A303 RMK A01 T00241011  RH  078%=      5-min Rain = 0
KOD1 110536Z 15007KT 02/M01 A303 RMK A01 T00241011  RH  078%=      5-min Rain = 0
KOD1 110537Z 15007KT 03/M01 A303 RMK A01 T00251011  RH  078%=      5-min Rain = 0
KOD1 110538Z 15007KT 02/M01 A303 RMK A01 T00241011  RH  077%=      5-min Rain = 0
KOD1 110539Z 15006KT 02/M01 A303 RMK A01 T00241011  RH  077%=      5-min Rain = 0
KOD1 110540Z 15006KT 02/M01 A303 RMK A01 T00241012  RH  077%=      5-min Rain = 0
KOD1 110541Z 15006KT 02/M01 A303 RMK A01 T00241012  RH  077%=      5-min Rain = 0
KOD1 110542Z 15006KT 02/M01 A303 RMK A01 T00231013  RH  077%=      5-min Rain = 0
KOD1 110543Z 15007KT 02/M01 A303 RMK A01 T00221013  RH  077%=      5-min Rain = 0
KOD1 110544Z 16006KT 02/M01 A303 RMK A01 T00211014  RH  078%=      5-min Rain = 0
KOD1 110545Z 16006KT 02/M01 A303 RMK A01 T00211014  RH  078%=      5-min Rain = 0
KOD1 110546Z 16006KT 02/M02 A303 RMK A01 T00201015  RH  078%=      5-min Rain = 0
KOD1 110547Z 16006KT 02/M02 A303 RMK A01 T00191015  RH  078%=      5-min Rain = 0
KOD1 110548Z 16005KT 02/M02 A303 RMK A01 T00181016  RH  078%=      5-min Rain = 0
KOD1 110549Z 16005KT 02/M02 A303 RMK A01 T00171016  RH  079%=      5-min Rain = 0
KOD1 110550Z 16005KT 02/M02 A303 RMK A01 T00161016  RH  079%=      5-min Rain = 0
KOD1 110551Z 16005KT 02/M02 A303 RMK A01 T00161016  RH  079%=      5-min Rain = 0
KOD1 110552Z 16006KT 02/M02 A303 RMK A01 T00151016  RH  080%=      5-min Rain = 0
KOD1 110553Z 17006KT 02/M02 A303 RMK A01 T00151015  RH  081%=      5-min Rain = 0
KOD1 110554Z 16005KT 02/M01 A303 RMK A01 T00151014  RH  081%=      5-min Rain = 0
KOD1 110555Z 17005KT 02/M02 A303 RMK A01 T00151015  RH  081%=      5-min Rain = 0
KOD1 110556Z 17005KT 01/M02 A303 RMK A01 T00141015  RH  081%=      5-min Rain = 0
KOD1 110557Z 16005KT 01/M02 A303 RMK A01 T00141015  RH  081%=      5-min Rain = 0
KOD1 110558Z 16005KT 01/M02 A303 RMK A01 T00131015  RH  081%=      5-min Rain = 0
KOD1 110559Z 16005KT 01/M02 A303 RMK A01 T00131015  RH  081%=      5-min Rain = 0

Page generated in 0.1193 seconds.